     2.10           OBSERVATION DATA    G (GPS)             RINEX VERSION / TYPE
teqc 2002Mar14 Lou Estey 20020315 16:28:34UTC               PGM / RUN BY / DATE
Solaris 2.7|Ultra 2|cc SC5.0|=+-|*Sparc                     COMMENT
BIT 2 OF LLI FLAGS DATA COLLECTED UNDER A/S CONDITION       COMMENT
HULL                                                        MARKER NAME
JB -Unknown-                                                OBSERVER / AGENCY
-Unknown- TI-4100 1.2                                       REC # / TYPE / VERS
-Unknown- TI-4100                                           ANT # / TYPE
 -1628207.0264 -4244026.2310  4462014.4395                  APPROX POSITION XYZ
        1.3480        0.0000        0.0000                  ANTENNA: DELTA H/E/N
     1     1                                                WAVELENGTH FACT L1/2
     7    L1    L2    C1    P2    P1    D1    D2            # / TYPES OF OBSERV
    30.0000                                                 INTERVAL
SNR is mapped to RINEX snr flag value [1-9]                 COMMENT
L1 & L2: 30 dBHz = 1; 35 dBHz = 5; 43 dBHz = 9              COMMENT
  1987     6    13    22    23   29.0800000     GPS         TIME OF FIRST OBS
                                                            END OF HEADER
 87  6 13 22 23 29.0800000  0  3G 6G 8G11
    984635.779 9  -1759862.842 9  20972357.196    20972356.764

    714789.523 9   -882006.926 9  20377834.928    20377832.672

    367669.059 8  -1137047.380 8  22904320.731    22904315.561

 87  6 13 22 23 59.0800000  0  3G 6G 8G11
    929839.590 9  -1802561.164 9  20961928.874    20961930.620

    683800.215 9   -906154.419 7  20371938.525    20371935.711

    263929.732 8  -1217883.160 8  22884579.620    22884576.373

 87  6 13 22 24 29.0800000  0  3G 6G 8G11
    875353.916 9  -1845017.523 8  20951561.074    20951560.045

    653493.411 8   -929770.110 8  20366168.892    20366168.325

    160471.753 8  -1298499.712 7  22864892.197    22864889.695

 87  6 13 22 24 59.0800000  0  3G 6G 8G11
    821180.588 9  -1887230.488 9  20941252.646    20941252.193

    623869.148 9   -952853.946 7  20360533.391    20360529.704

     57297.174 9  -1378895.439 8  22845258.503    22845255.961

 87  6 13 22 25 29.0800000  0  3G 6G 8G11
    767321.838 9  -1929198.346 8  20931003.132    20931002.984

    594928.465 9   -975405.100 9  20355025.741    20355023.747

    -45591.284 9  -1459068.221 8  22825678.892    22825676.492

 87  6 13 22 25 59.0800000  0  3G 6G 8G11
    713780.194 9  -1970919.104 8  20920814.300    20920814.259

    566672.479 9   -997422.742 8  20349648.538    20349646.592

   -148190.681 9  -1539015.746 7  22806155.973    22806152.973

 87  6 13 22 26 29.0800000  0  3G 6G 8G11
    660556.918 9  -2012391.768 9  20910686.785    20910686.159

    539101.215 9  -1018906.818 8  20344401.701    20344401.501

   -250499.540 9  -1618736.901 9  22786686.154    22786683.402

 87  6 13 22 26 59.0800000  0  3G 6G 8G11
    607654.060 9  -2053614.760 9  20900619.826    20900619.041

    512214.951 9  -1039857.142 7  20339285.308    20339284.868

   -352515.010 9  -1698229.419 8  22767273.639    22767269.972

 87  6 13 22 27 29.0800000  0  3G 6G 8G11
    555074.160 9  -2094586.098 8  20890613.933    20890612.786

    486014.159 9  -1060273.329 7  20334300.000    20334298.755

   -454234.296 9  -1777491.148 9  22747917.629    22747914.088

 87  6 13 22 27 59.0800000  0  3G 6G 8G11
    502818.920 9  -2135304.453 8  20880669.380    20880669.687

    460499.364 9  -1080154.984 7  20329444.386    20329443.695

   -555655.518 9  -1856520.641 8  22728617.048    22728614.559

 87  6 13 22 28 29.0800000  0  3G 6G 8G11
    450890.451 9  -2175768.194 8  20870789.050    20870786.729

    435670.965 9  -1099501.775 7  20324720.986    20324717.809

   -656776.148 9  -1935315.873 8  22709373.313    22709371.171

 87  6 13 22 28 59.0800000  0  3G 6G 8G11
    399290.776 8  -2215975.731 8  20860969.644    20860968.348

    411529.573 9  -1118313.236 8  20320125.365    20320124.693

   -757593.395 9  -2013874.719 8  22690189.059    22690185.540

 87  6 13 22 29 29.0800000  0  3G 6G 8G11
    348022.574 9  -2255924.969 8  20851213.084    20851212.215

    388075.725 9  -1136588.954 8  20315662.548    20315661.590

   -858104.311 9  -2092194.870 8  22671062.248    22671060.398

 87  6 13 22 29 59.0800000  0  3G 6G 8G11
    297087.140 9  -2295614.920 9  20841519.112    20841521.583

    365309.060 9  -1154329.201 7  20311331.048    20311329.721

   -958307.582 8  -2170275.316 8  22651992.897    22651990.308

 87  6 13 22 30 29.0800000  0  4G 6G 8G11G 9
    246487.443 9  -2335043.250 8  20831891.059    20831890.668

    343230.992 9  -1171532.887 7  20307128.742    20307126.927

  -1058199.838 8  -2248113.393 8  22632985.895    22632982.727

  -2451770.073 8                  23783141.418

 87  6 13 22 30 59.0800000  0  4G 6G 8G11G 9
    196224.866 9  -2374208.871 8  20822327.145    20822327.785

    321841.141 8  -1188200.295 8  20303058.909    20303057.547

  -1157779.214 9  -2325707.671 8  22614036.528    22614033.818

  -2555930.057 9   3271276.049 8  23763360.899    23763358.522

 87  6 13 22 31 29.0800000  0  4G 6G 8G11G 9
    146301.414 9  -2413110.247 8  20812827.277    20812826.105

    301139.695 9  -1204331.281 8  20299118.852    20299118.205

  -1257043.136 9  -2403056.139 8  22595146.409    22595144.154

  -2660052.403 8   3190141.815 8  23743546.874    23743542.580

 87  6 13 22 31 59.0800000  0  4G 6G 8G11G 9
     96719.076 9  -2451745.831 8  20803392.282    20803391.338

    281126.438 9  -1219926.020 7  20295311.796    20295309.336

  -1355989.481 9  -2480157.142 8  22576317.965    22576315.165

  -2764136.573 9   3109037.310 8  23723740.995    23723737.945

 87  6 13 22 32 29.0800000  0  4G 6G 8G11G 9
     47480.097 9  -2490113.852 9  20794021.736    20794021.021

    261801.855 9  -1234984.126 7  20291632.809    20291632.799

  -1454615.501 8  -2557008.520 8  22557550.086    22557547.028

  -2868180.361 9   3027964.284 8  23703942.139    23703937.066

 87  6 13 22 32 59.0800000  0  4G 6G 8G11G 9
     -1413.386 9  -2528212.652 8  20784718.145    20784717.245

    243166.465 9  -1249505.198 7  20288086.224    20288086.848

  -1552918.930 9  -2633608.520 7  22538843.519    22538838.757

  -2972182.375 8   2946923.814 8  23684152.233    23684147.209

 87  6 13 22 33 29.0800000  0  4G 6G 8G11G 9
    -49959.139 9  -2566040.519 8  20775479.281    20775478.878

    225220.470 9  -1263489.069 7  20284672.884    20284671.021

  -1650897.243 9  -2709955.199 8  22520199.585    22520195.355

  -3076140.561 9   2865917.463 9  23664368.779    23664365.254

 87  6 13 22 33 59.0800000  0  4G 6G 8G11G 9
    -98155.560 9  -2603596.164 9  20766308.601    20766307.940

    207963.068 9  -1276936.388 7  20281388.045    20281387.276

  -1748548.576 8  -2786047.125 8  22501615.780    22501613.762

  -3180053.822 9   2784946.162 8  23644594.295    23644590.463

 87  6 13 22 34 29.0800000  0  4G 6G 8G11G 9
   -146000.384 9  -2640877.845 9  20757203.827    20757202.744

    191394.588 9  -1289846.896 7  20278235.418    20278234.277

  -1845870.458 9  -2861882.299 8  22483095.469    22483093.266

  -3283920.323 9   2704011.288 9  23624829.287    23624826.132

 87  6 13 22 34 59.0800000  0  4G 6G 8G11G 9
   -193491.295 9  -2677883.737 8  20748166.395    20748165.519

    175515.287 9  -1302220.376 8  20275212.453    20275212.783

  -1942860.131 9  -2937458.623 8  22464639.092    22464636.326

  -3387738.102 9   2623114.328 8  23605073.221    23605069.650

 87  6 13 22 35 29.0800000  0  4G 6G 8G11G 9
   -240626.351 9  -2714612.350 7  20739197.985    20739198.025

    160325.134 9  -1314056.845 7  20272323.334    20272321.591

  -2039515.509 8  -3012774.456 8  22446246.554    22446244.607

  -3491505.420 9   2542256.737 7  23585326.044    23585322.903

 87  6 13 22 35 59.0800000  0  4G 6G 8G11G 9
   -287403.275 9  -2751061.883 9  20730296.294    20730295.459

    145824.585 9  -1325355.968 7  20269562.724    20269561.531

  -2135834.126 9  -3087827.863 9  22427918.081    22427914.475

  -3595220.121 9   2461440.135 8  23565589.816    23565586.960

 87  6 13 22 36 29.0800000  0  4G 6G 8G11G 9
   -333820.037 8  -2787230.771 8  20721463.086    20721461.928

    132013.074 9  -1336118.177 7  20266936.460    20266933.739

  -2231813.696 8  -3162617.099 8  22409652.846    22409651.430

  -3698880.945 9   2380665.500 8  23545863.775    23545860.548

 87  6 13 22 36 59.0800000  0  4G 6G 8G11G 9
   -379874.895 9  -2823117.658 9  20712699.316    20712698.197

    118890.513 9  -1346343.539 7  20264439.022    20264437.657

  -2327452.122 9  -3237140.517 8  22391454.482    22391451.225

  -3802485.965 9   2299934.350 9  23526148.954    23526146.239

 87  6 13 22 37 29.0800000  0  4G 6G 8G11G 9
   -425565.418 9  -2858720.650 8  20704004.275    20704003.678

    106456.757 9  -1356032.174 7  20262072.248    20262071.492

  -2422746.780 9  -3311396.050 8  22373320.987    22373318.431

  -3906033.457 9   2219248.042 8  23506443.347    23506441.892

 87  6 13 22 37 59.0800000  0  4G 6G 8G11G 9
   -470889.727 9  -2894038.291 8  20695379.170    20695378.313

     94711.854 9  -1365184.031 8  20259837.894    20259836.548

  -2517695.420 9  -3385381.974 9  22355252.656    22355249.403

  -4009521.478 9   2138608.073 8  23486750.814    23486748.897

 87  6 13 22 38 29.0800000  0  4G 6G 8G11G 9
   -515845.744 9  -2929068.960 8  20686824.950    20686823.659

     83654.988 9  -1373799.760 8  20257734.344    20257732.016

  -2612296.182 9  -3459096.815 7  22337250.767    22337247.581

  -4112948.493 9   2058015.649 8  23467068.566    23467067.439

 87  6 13 22 38 59.0800000  0  4G 6G 8G11G 9
   -560431.141 9  -2963810.819 9  20678340.090    20678339.212

     73286.558 9  -1381879.061 8  20255760.381    20255759.534

  -2706546.357 9  -3532538.454 8  22319314.921    22319311.301

  -4216312.346 9   1977472.446 8  23447400.804    23447397.420

 87  6 13 22 39 29.0800000  0  4G 6G 8G11G 9
   -604644.365 9  -2998262.674 8  20669926.214    20669926.126

     63605.861 9  -1389422.438 8  20253919.031    20253916.837

  -2800444.103 9  -3605705.477 8  22301447.167    22301443.885

  -4319611.600 9   1896979.558 8  23427742.996    23427740.510

 87  6 13 22 39 59.0800000  0  4G 6G 8G11G 9
   -648483.517 9  -3032423.034 8  20661583.922    20661583.322

     54612.386 9  -1396430.344 7  20252206.639    20252206.381

  -2893987.390 9  -3678596.319 8  22283646.037    22283643.933

  -4422844.694 8   1816538.234 8  23408097.008    23408094.897

 87  6 13 22 40 29.0800000  0  4G 6G 8G11G 9
   -691945.469 9  -3066289.490 9  20653314.662    20653313.250

     46306.555 9  -1402902.427 7  20250626.117    20250625.337

  -2987172.863 9  -3751208.327 8  22265914.000    22265911.644

  -4526008.918 9   1736150.591 8  23388467.624    23388464.800

 87  6 13 22 40 59.0800000  0  4G 6G 8G11G 9
   -735029.262 8  -3099861.269 8  20645115.455    20645114.205

     38687.115 9  -1408839.649 7  20249177.217    20249174.649

  -3079999.390 9  -3823540.652 8  22248249.303    22248246.569

  -4629103.056 9   1655817.510 8  23368848.582    23368847.598

 87  6 13 22 41 29.0800000  0  4G 6G 8G11G 9
   -777731.631 9  -3133135.837 9  20636989.373    20636987.973

     31755.122 9  -1414241.190 8  20247857.349    20247857.007

  -3172464.015 9  -3895590.942 8  22230654.139    22230650.704

  -4732124.510 9   1575541.092 8  23349244.920    23349241.612

 87  6 13 22 41 59.0800000  0  4G 6G 8G11G 9
   -820050.964 8  -3166111.932 9  20628935.712    20628934.514

     25509.520 9  -1419107.891 8  20246668.435    20246666.518

  -3264564.333 9  -3967357.355 8  22213127.725    22213124.024

  -4835071.361 8   1495322.827 8  23329653.003    23329652.225

 87  6 13 22 42 29.0800000  0  4G 6G 8G11G 9
   -861985.848 9  -3198788.471 8  20620956.141    20620954.069

     19949.331 9  -1423440.500 7  20245609.929    20245609.735

  -3356298.929 8  -4038838.817 8  22195670.874    22195667.506

  -4937942.923 9   1415163.201 8  23310077.587    23310075.685

 87  6 13 22 42 59.0800000  0  4G 6G 8G11G 9
   -903534.245 9  -3231163.840 8  20613050.046    20613049.135

     15073.684 9  -1427239.698 7  20244682.551    20244682.229

  -3447665.838 9  -4110033.772 8  22178283.632    22178281.944

  -5040736.969 9   1335064.002 9  23290517.900    23290514.389

 87  6 13 22 43 29.0800000  0  4G 6G 8G11G 9
   -944693.186 9  -3263235.744 9  20605217.464    20605216.618

     10882.892 9  -1430505.245 8  20243885.543    20243884.356

  -3538661.753 9  -4180939.634 8  22160967.316    22160964.574

  -5143450.809 8   1255027.283 7  23270970.553    23270968.213

 87  6 13 22 43 59.0800000  0  4G 6G 8G11G 9
   -985460.749 8  -3295002.651 8  20597459.529    20597458.832

      7376.776 9  -1433237.272 7  20243219.860    20243216.661

  -3629284.631 9  -4251554.817 7  22143721.906    22143720.538

  -5246082.242 8   1175054.774 9  23251441.207    23251438.166

 87  6 13 22 44 29.0800000  0  4G 6G 8G11G 9
  -1025835.271 9  -3326463.310 8  20589776.116    20589776.246

      4553.968 9  -1435436.870 9  20242680.150    20242679.621

  -3719533.032 9  -4321878.175 8  22126549.598    22126545.372

  -5348630.335 8   1095147.217 8  23231927.326    23231924.721

 87  6 13 22 44 59.0800000  0  4G 6G 8G11G 9
  -1065814.896 9  -3357616.263 8  20582168.116    20582167.851

      2413.885 9  -1437104.453 8  20242274.032    20242272.880

  -3809404.716 9  -4391908.024 9  22109447.424    22109444.304

  -5451092.924 9   1015306.294 8  23212429.324    23212425.510

 87  6 13 22 45 29.0800000  0  4G 6G 8G11G 9
  -1105396.952 9  -3388459.412 9  20574637.096    20574635.978

       956.443 9  -1438240.121 7  20241995.554    20241995.633

  -3898897.067 8  -4461642.267 8  22092417.768    22092415.379

  -5553467.374 9    935534.036 8  23192946.900    23192943.676

 87  6 13 22 45 59.0800000  0  4G 6G 8G11G 9
  -1144579.832 9  -3418991.514 9  20567180.796    20567180.541

       180.364 9  -1438844.855 7  20241848.807    20241846.877

  -3988008.462 9  -4531079.662 9  22075459.583    22075456.669

  -5655752.421 9    855831.451 9  23173482.593    23173481.747

 87  6 13 22 46 29.0800000  0  4G 6G 8G11G 9
  -1183361.490 9  -3449210.989 8  20559800.011    20559800.616

        85.547 9  -1438918.740 7  20241829.836    20241829.686

  -4076736.677 9  -4600218.490 8  22058575.844    22058572.729

  -5757945.700 9    776200.382 9  23154037.591    23154035.157

 87  6 13 22 46 59.0800000  0  4G 6G 8G11G 9
  -1221739.616 9  -3479116.012 8  20552497.370    20552496.263

       671.447 9  -1438462.193 7  20241941.774    20241940.303

  -4165079.270 8  -4669056.821 8  22041763.821    22041760.950

  -5860045.289 8    696642.304 8  23134607.380    23134605.174

 87  6 13 22 47 29.0800000  0  4G 6G 8G11G 9
  -1259712.143 9  -3508704.979 9  20545271.415    20545269.818

      1937.021 9  -1437476.015 8  20242182.410    20242182.510

  -4253034.636 9  -4737593.414 9  22025027.695    22025024.499

  -5962049.097 9    617158.874 8  23115196.978    23115195.787

 87  6 13 22 47 59.0800000  0  4G 6G 8G11G 9
  -1297277.436 9  -3537976.632 8  20538123.344    20538122.151

      3881.067 9  -1435961.160 9  20242553.851    20242552.784

  -4340600.766 9  -4805826.725 8  22008364.184    22008360.616

  -6063955.447 9    537751.365 8  23095804.245    23095803.524

 87  6 13 22 48 29.0800000  0  4G 6G 8G11G 9
  -1334433.677 9  -3566929.545 9  20531052.460    20531050.952

      6502.925 9  -1433918.154 8  20243051.546    20243050.240

  -4427775.434 9  -4873755.002 9  21991774.709    21991773.392

  -6165762.517 9    458421.228 8  23076430.903    23076429.985

 87  6 13 22 48 59.0800000  0  4G 6G 8G11G 9
  -1371178.290 9  -3595561.697 8  20524059.822    20524059.353

      9801.779 9  -1431347.610 8  20243678.802    20243676.962

  -4514556.374 8  -4941376.497 8  21975261.900    21975258.886

  -6267467.730 9    379170.465 9  23057076.496    23057074.559

 87  6 13 22 49 29.0800000  0  4G 6G 8G11G 9
  -1407509.306 9  -3623871.582 8  20517145.387    20517145.139

     13776.988 9  -1428250.035 7  20244435.014    20244435.068

  -4600941.568 9  -5008689.578 8  21958823.062    21958820.067

  -6369069.141 9    300000.579 8  23037743.667    23037741.246

 87  6 13 22 49 59.0800000  0  4G 6G 8G11G 9
  -1443424.766 9  -3651857.648 7  20510311.995    20510310.741

     18427.269 9  -1424626.440 7  20245321.851    20245319.988

  -4686929.103 8  -5075692.806 7  21942460.359    21942455.775

  -6470564.669 9    220913.184 8  23018429.526    23018427.912

 87  6 13 22 50 29.0800000  0  4G 6G 8G11G 9
  -1478923.016 9  -3679518.619 9  20503557.834    20503556.294

     23751.765 9  -1420477.497 7  20246334.326    20246332.367

  -4772517.468 9  -5142384.998 9  21926172.912    21926170.017

  -6571952.643 9    141909.605 8  22999136.012    22999133.211

 87  6 13 22 50 59.0800000  0  4G 6G 8G11G 9
  -1514001.699 9  -3706852.653 8  20496882.430    20496881.150

     29749.749 9  -1415803.727 8  20247474.347    20247474.459

  -4857704.075 9  -5208764.140 8  21909961.760    21909958.713

  -6673230.417 9     62991.905 8  22979861.725    22979861.488

 87  6 13 22 51 29.0800000  0  4G 6G 8G11G 9
  -1548658.686 9  -3733858.092 8  20490286.629    20490285.590

     36420.193 9  -1410605.979 8  20248744.341    20248744.115

  -4942486.884 9  -5274828.631 8  21893829.090    21893825.975

  -6774395.966 9    -15838.337 9  22960611.626    22960610.159

 87  6 13 22 51 59.0800000  0  4G 6G 8G11G 9
  -1616692.691 9  -3760533.951 8  20483773.127    20483771.325

     -1921.450 9  -1404885.433 9  20250142.054    20250140.087

  -5026865.751 9  -5232465.590 8  21877770.209    21877768.855

  -6899494.817 9    -94578.996 8  22941380.876    22941380.561

 87  6 13 22 52 29.0800000  0  4G 6G 8G11G 9
  -1650501.077 9  -3786878.146 9  20477338.586    20477338.142

      6090.528 9  -1398642.340 6  20251664.578    20251665.535

  -5110835.729 8  -5297896.696 8  21861792.832    21861789.430

  -7000430.267 1   -173229.960 6  22922174.371    22922170.846

 87  6 13 22 52 59.0800000  0  3G 6G 8G11
  -1713470.344 9  -3812889.725 7  20470986.173    20470985.250

    -23424.941 7  -1391878.513 7  20253317.655    20253316.526

  -5194395.776 7  -5228979.395 8  21845892.490    21845888.973

 87  6 13 22 53 29.0800000  0  4G 6G 8G11G 9
  -1746421.334 9  -3838565.802 8  20464715.580    20464715.835

    -14075.831 9  -1384593.490 7  20255096.846    20255096.362

  -5277544.425 9  -5293770.531 9  21830070.209    21830066.898

 -10653998.011 1  13625842.705 1  22883831.907    22883828.169

 87  6 13 22 53 59.0800000  0  4G 6G 8G11G 9
  -1778940.942 9  -3863905.757 8  20458527.226    20458527.872

     -4059.920 7  -1376788.867 6  20257003.066    20257002.452

  -5360279.980 9  -5358239.757 7  21814323.810    21814322.142

                  13547474.266 1  22864692.031

 87  6 13 22 54 29.0800000  0  4G 6G 8G11G 9
  -1811026.870 9  -3888907.749 8  20452422.162    20452420.996

      6622.231 7  -1368465.111 5  20259036.576    20259035.083

  -5442599.663 9  -5422384.927 8  21798660.022    21798656.806

 -10887162.705 1  13469203.056 1  22845574.454    22845569.282

 87  6 13 22 54 59.0800000  0  3G 6G 8G11
  -1842676.984 8  -3913570.167 8  20446400.165    20446398.300

     17969.620 9  -1359622.995 7  20261196.138    20261194.808

  -5524502.156 9  -5486205.024 8  21783073.464    21783071.151

 87  6 13 22 55 29.0800000  0  4G 6G 8G11G 9
  -1873889.043 8  -3937891.241 8  20440459.884    20440458.716

     29980.995 9  -1350263.483 9  20263481.328    20263480.019

  -5605984.920 9  -5549698.056 8  21767570.418    21767566.305

 -11427581.746 9                  22507600.536

 87  6 13 22 55 59.0800000  0  4G 6G 8G11G 9
  -1904662.339 9  -3961870.422 9  20434603.351    20434603.543

     42653.828 9  -1340388.547 8  20265892.544    20265891.316

  -5687047.258 9  -5612863.482 8  21752144.402    21752140.918

 -11527642.717 9  14677506.217 8  22788376.839    22788376.803

 87  6 13 22 56 29.0800000  0  4G 6G 8G11G 9
  -1934994.410 9  -3985505.806 7  20428831.844    20428830.161

     55987.590 9  -1329998.608 7  20268430.400    20268429.445

  -5767686.731 9  -5675699.414 8  21736798.075    21736796.094

 -11627557.273 3                                  22769361.803

 87  6 13 22 56 59.0800000  0  3G 6G 8G11
  -1964883.098 9  -4008795.684 1  20423144.224    20423143.269

     69981.349 6  -1319094.392 6  20271094.187    20271091.844

  -5847901.728 8  -5738204.558 9  21721533.977    21721531.648

 87  6 13 22 57 29.0800000  0  4G 6G 8G11G 9
  -1994326.899 6  -4031738.916 6  20417541.051    20417540.209

     84633.322 6  -1307677.253 5  20273880.309    20273879.763

  -5927690.526 7  -5800377.613 6  21706351.153    21706347.174

 -12152028.804 9                  22731390.142

 87  6 13 22 57 59.0800000  0  4G 6G 8G11G 9
  -2023323.468 9  -4054333.641 8  20412022.367    20412022.977

     99942.682 9  -1295747.878 7  20276795.413    20276793.149

  -6007050.671 9  -5862216.663 7  21691249.048    21691245.958

 -12251540.797 9  15707184.422 1  22712475.943    22712471.673

 87  6 13 22 58 29.0800000  0  4G 6G 8G11G 9
  -2051870.754 9  -4076578.272 8  20406591.135    20406590.111

    115907.633 9  -1283307.639 7  20279833.005    20279831.566

  -6085980.630 9  -5923720.498 8  21676228.073    21676226.600

 -12350909.844 9  15629754.613 8  22693564.589    22693562.188

 87  6 13 22 58 59.0800000  0  4G 6G 8G11G 9
  -2079967.657 9  -4098471.948 9  20401245.240    20401242.733

    132526.812 9  -1270357.633 8  20282994.486    20282993.957

  -6164479.068 9  -5984888.075 9  21661290.974    21661289.610

 -12450134.443 9  15552436.771 8  22674682.877    22674681.140

 87  6 13 22 59 29.0800000  0  4G 6G 8G11G 9
  -2107611.476 9  -4120012.580 8  20395983.912    20395982.914

    149799.019 9  -1256898.789 7  20286282.466    20286281.395

  -6242543.783 9  -6045717.704 8  21646435.102    21646434.093

 -12549211.785 9  15475233.707 7  22655829.606    22655826.052

 87  6 13 22 59 59.0800000  0  4G 6G 8G11G 9
  -2134800.797 9  -4141199.049 9  20390810.692    20390809.130

    167722.471 9  -1242932.445 7  20289692.354    20289691.674

  -6320173.377 9  -6106208.271 7  21631663.278    21631661.073

 -12648139.793 9  15398146.979 8  22637003.649    22637001.202

 87  6 13 23  0 29.0800000  0  4G 6G 8G11G 9
  -2161533.174 9  -4162029.489 9  20385722.430    20385721.731

    186296.260 9  -1228459.372 7  20293226.150    20293226.006

  -6397365.700 9  -6166358.082 8  21616974.722    21616971.849

 -12746915.721 9  15321178.761 8  22618206.133    22618204.718

 87  6 13 23  0 59.0800000  0  4G 6G 8G11G 9
  -2187806.995 8  -4182502.608 8  20380723.532    20380721.274

    205518.250 9  -1213481.195 7  20296884.012    20296883.948

  -6474119.107 9  -6226165.902 7  21602368.082    21602366.542

 -12845537.583 9  15244330.595 8  22599438.213    22599438.086

 87  6 13 23  1 29.0800000  0  4G 6G 8G11G 9
  -2213620.545 9  -4202617.070 8  20375810.281    20375810.131

    225387.034 9  -1197999.021 7  20300666.808    20300663.831

  -6550432.153 9  -6285630.599 8  21587845.910    21587843.619

 -12944003.425 9  15167603.998 9  22580701.613    22580699.765

 87  6 13 23  1 59.0800000  0  4G 6G 8G11G 9
  -2238971.738 9  -4222371.227 7  20370988.379    20370986.346

    245900.963 9  -1182014.133 8  20304569.130    20304567.257

  -6626302.520 9  -6344750.321 8  21573407.435    21573405.843

 -13042310.251 9  15091001.337 8  22561995.418    22561992.648

 87  6 13 23  2 29.0800000  0  4G 6G 8G11G 9
  -2263858.702 9  -4241763.660 8  20366251.218    20366249.307

    267058.751 9  -1165527.538 8  20308594.798    20308594.845

  -6701728.909 9  -6403524.115 8  21559055.931    21559053.305

 -13140456.087 8  15014524.108 9  22543317.561    22543316.356

 87  6 13 23  2 59.0800000  0  4G 6G 8G11G 9
  -2288279.984 8  -4260793.228 9  20361603.975    20361602.900

    288858.665 9  -1148540.597 8  20312743.961    20312743.041

  -6776709.981 9  -6461950.881 8  21544785.332    21544784.644

 -13238438.810 9  14938173.971 9  22524671.808    22524670.534

 87  6 13 23  3 29.0800000  0  4G 6G 8G11G 9
  -2312233.394 9  -4279458.227 9  20357045.753    20357045.890

    311299.256 9  -1131054.419 7  20317014.514    20317013.271

  -6851243.421 9  -6520028.855 7  21530602.842    21530601.716

 -13336255.765 9  14861953.025 8  22506058.731    22506055.094

 87  6 13 23  3 59.0800000  0  4G 6G 8G11G 9
  -2335717.371 9  -4297757.427 8  20352577.461    20352576.376

    334378.533 9  -1113070.565 7  20321407.104    20321404.767

  -6925328.181 9  -6577757.223 8  21516505.717    21516503.101

 -13433904.809 8  14785862.895 8  22487476.368    22487474.024

 87  6 13 23  4 29.0800000  0  4G 6G 8G11G 9
  -2358729.840 9  -4315689.211 8  20348198.848    20348197.258

    358094.888 9  -1094590.279 7  20325918.145    20325918.079

  -6998962.549 8  -6635134.614 8  21502492.964    21502490.636

 -13531383.459 9  14709905.544 8  22468925.547    22468924.437

 87  6 13 23  4 59.0800000  0  4G 6G 8G11G 9
  -2381269.115 9  -4333252.290 8  20343907.942    20343907.244

    382446.827 9  -1075614.748 7  20330553.838    20330551.493

  -7072144.814 9  -6692159.731 7  21488567.646    21488564.746

 -13628689.281 9  14634082.850 7  22450410.631    22450408.245

 87  6 13 23  5 29.0800000  0  4G 6G 8G11G 9
  -2403332.710 9  -4350444.685 8  20339710.771    20339709.357

    407432.861 9  -1056145.101 8  20335309.106    20335306.656

  -7144872.701 9  -6748830.787 8  21474729.382    21474725.422

 -13725819.541 8  14558396.964 8  22431926.400    22431924.821

 87  6 13 23  5 59.0800000  0  4G 6G 8G11G 9
  -2424919.726 9  -4367265.745 8  20335603.184    20335601.351

    433050.376 9  -1036183.398 8  20340183.258    20340182.076

  -7217145.804 9  -6805147.466 8  21460974.691    21460972.664

 -13822772.259 8  14482849.437 9  22413477.318    22413475.624

 87  6 13 23  6 29.0800000  0  4G 6G 8G11G 9
  -2446028.089 9  -4383713.806 8  20331585.212    20331584.809

    459298.403 9  -1015730.403 7  20345177.140    20345176.880

  -7288961.882 8  -6861108.003 8  21447308.583    21447305.492

 -13919544.858 8  14407442.241 9  22395062.223    22395059.822

 87  6 13 23  6 59.0800000  0  4G 6G 8G11G 9
  -2466656.198 8  -4399787.655 8  20327659.427    20327660.366

    486174.810 8   -994787.748 8  20350292.569    20350290.582

  -7360319.554 9  -6916711.368 7  21433727.889    21433726.968

 -14016135.358 8  14332176.970 9  22376681.058    22376679.279

 87  6 13 23  7 29.0800000  0  4G 6G 8G11G 9
  -2486801.826 9  -4415485.527 8  20323826.826    20323825.632

    513678.084 9   -973356.633 8  20355525.939    20355525.259

  -7431217.043 9  -6971956.130 9  21420237.290    21420235.070

 -14112540.705 9  14257055.970 8  22358335.798    22358334.556

 87  6 13 23  7 59.0800000  0  4G 6G 8G11G 9
  -2506463.572 8  -4430806.372 8  20320083.475    20320084.131

    541806.002 9   -951438.767 8  20360878.644    20360876.448

  -7501653.202 9  -7026841.414 8  21406834.090    21406831.787

 -14208758.686 9  14182080.963 8  22340026.511    22340024.871

 87  6 13 23  8 29.0800000  0  4G 6G 8G11G 9
  -2525639.690 8  -4445748.793 8  20316436.053    20316433.790

    570556.743 9   -929035.591 8  20366349.480    20366349.098

  -7571626.571 9  -7081366.097 8  21393518.971    21393516.480

 -14304787.044 9  14107253.708 8  22321752.093    22321751.967

 87  6 13 23  8 59.0800000  0  4G 6G 8G11G 9
  -2544328.275 8  -4460311.313 8  20312879.400    20312878.591

    599928.309 9   -906148.675 8  20371937.684    20371937.285

  -7641135.552 9  -7135528.902 8  21380291.826    21380290.042

 -14400623.004 9  14032576.374 8  22303514.181    22303514.200

 87  6 13 23  9 29.0800000  0  4G 6G 8G11G 9
  -2562527.870 9  -4474492.805 8  20309415.965    20309415.100

    629919.056 9   -882779.255 9  20377645.609    20377643.580

  -7710178.804 9  -7189328.820 8  21367153.375    21367151.092

 -14496264.369 8  13958050.667 8  22285314.633    22285311.955

 87  6 13 23  9 59.0800000  0  4G 6G 8G11G 9
  -2580236.665 9  -4488291.861 9  20306046.360    20306045.639

    660527.103 9   -858928.831 8  20383470.163    20383468.061

  -7778754.469 9  -7242764.370 8  21354102.390    21354102.061

 -14591708.751 9  13883678.453 8  22267153.366    22267150.033

 87  6 13 23 10 29.0800000  0  4G 6G 8G11G 9
  -2597452.746 8  -4501706.985 7  20302770.215    20302770.466

    691750.466 9   -834598.949 7  20389412.588    20389410.154

  -7846861.433 9  -7295834.693 8  21341143.615    21341140.597

 -14686953.299 8  13809461.965 8  22249029.486    22249026.547

 87  6 13 23 10 59.0800000  0  4G 6G 8G11G 9
  -2614174.665 9  -4514737.059 9  20299588.576    20299587.840

    723586.901 9   -809791.350 8  20395470.734    20395467.795

  -7914498.322 9  -7348538.741 7  21328273.298    21328269.920

 -14781995.705 9  13735402.968 8  22230941.488    22230940.186

 87  6 13 23 11 29.0800000  0  4G 6G 8G11G 9
  -2630400.736 9  -4527380.739 9  20296500.777    20296500.589

    756034.566 8   -784507.455 7  20401643.581    20401642.678

  -7981663.475 9  -7400875.184 8  21315491.202    21315489.308

 -14876833.510 9  13661503.396 8  22212895.966    22212893.473

 87  6 13 23 11 59.0800000  0  4G 6G 8G11G 9
  -2646129.349 9  -4539636.812 9  20293507.362    20293505.795

    789091.422 9   -758748.873 8  20407934.369    20407933.334

  -8048355.746 9  -7452843.163 8  21302799.968    21302798.334

 -14971464.148 9  13587765.265 9  22194888.162    22194885.672

 87  6 13 23 12 29.0800000  0  4G 6G 8G11G 9
  -2661359.005 9  -4551504.088 9  20290609.780    20290608.470

    822755.422 9   -732517.164 8  20414340.827    20414340.507

  -8114573.884 8  -7504441.693 8  21290198.994    21290197.422

 -15065885.439 9  13514190.254 9  22176921.111    22176917.951

 87  6 13 23 12 59.0800000  0  4G 6G 8G11G 9
  -2676087.791 9  -4562981.065 8  20287806.695    20287804.952

    857024.667 9   -705813.879 7  20420863.074    20420860.501

  -8180316.394 9  -7555669.596 8  21277688.727    21277686.317

 -15160094.528 9  13440780.597 8  22158992.649    22158991.029

 87  6 13 23 13 29.0800000  0  4G 6G 8G11G 9
  -2690314.254 8  -4574066.618 7  20285099.264    20285097.425

    891896.882 9   -678640.728 8  20427497.225    20427496.579

  -8245581.943 9  -7606525.838 8  21265268.564    21265267.108

 -15254088.961 9  13367538.243 7  22141105.203    22141104.730

 87  6 13 23 13 59.0800000  0  4G 6G 8G11G 9
  -2704036.686 9  -4584759.425 7  20282488.705    20282487.258

    927370.078 9   -650999.276 8  20434248.967    20434247.495

  -8310369.267 9  -7657009.439 7  21252940.699    21252938.384

 -15347866.159 9  13294465.117 9  22123260.443    22123258.964

 87  6 13 23 14 29.0800000  0  4G 6G 8G11G 9
  -2717253.649 9  -4595058.349 8  20279972.989    20279972.017

    963442.229 9   -622891.117 8  20441111.429    20441110.460

  -8374677.134 9  -7707119.439 7  21240703.963    21240701.325

 -15441423.697 9  13221563.175 7  22105456.580    22105456.391

 87  6 13 23 14 59.0800000  0  4G 6G 8G11G 9
  -2729963.406 9  -4604962.060 8  20277554.410    20277553.807

   1000111.228 9   -594317.882 8  20448090.891    20448088.600

  -8438504.202 9  -7756854.793 9  21228557.701    21228555.028

 -15534758.884 9  13148834.486 9  22087696.600    22087695.899

 87  6 13 23 15 29.0800000  0  4G 6G 8G11G 9
  -2742164.377 8  -4614469.294 7  20275232.411    20275232.189

   1037374.797 9   -565281.342 8  20455182.257    20455180.460

  -8501849.401 9  -7806214.668 8  21216502.830    21216500.976

 -15627869.302 9  13076280.939 8  22069978.265    22069976.486

 87  6 13 23 15 59.0800000  0  4G 6G 8G11G 9
  -2753854.793 9  -4623578.703 8  20273007.236    20273007.582

   1075230.765 9   -535783.187 7  20462386.048    20462384.386

  -8564711.174 9  -7855197.856 8  21204541.697    21204539.373

 -15720751.888 9  13003904.948 8  22052303.815    22052301.866

 87  6 13 23 16 29.0800000  0  4G 6G 8G11G 9
  -2765033.312 9  -4632289.234 8  20270881.111    20270879.959

   1113676.744 9   -505825.302 8  20469701.983    20469699.813

  -8627088.269 9  -7903803.359 8  21192671.830    21192668.737

 -15813404.433 8  12931708.200 8  22034671.238    22034671.172

 87  6 13 23 16 59.0800000  0  4G 6G 8G11G 9
  -2775698.282 9  -4640599.600 8  20268850.446    20268850.903

   1152710.764 9   -475409.171 8  20477129.434    20477127.905

  -8688979.452 9  -7952030.230 8  21180893.377    21180892.586

 -15905824.214 9  12859692.838 9  22017084.531    22017082.799

 87  6 13 23 17 29.0800000  0  4G 6G 8G11G 9
  -2785848.690 7  -4648508.992 8  20266919.536    20266918.418

   1192330.070 9   -444537.003 9  20484669.238    20484667.000

  -8750384.182 9  -7999878.032 9  21169207.903    21169205.622

 -15998008.978 9  12787860.575 8  21999543.424    21999540.823

 87  6 13 23 17 59.0800000  0  4G 6G 8G11G 9
  -2795482.374 9  -4656015.767 8  20265085.575    20265085.072

   1232532.990 9   -413210.052 8  20492319.817    20492317.828

  -8811300.725 9  -8047345.453 8  21157614.698    21157614.194

 -16089955.671 9  12716213.834 8  21982045.749    21982044.307

 87  6 13 23 18 29.0800000  0  4G 6G 8G11G 9
  -2804598.288 8  -4663119.064 9  20263351.626    20263350.093

   1273316.734 9   -381430.514 8  20500079.637    20500079.085

  -8871728.078 8  -8094431.683 8  21146115.948    21146115.240

 -16181662.022 9  12644754.361 8  21964594.579    21964594.121

 87  6 13 23 18 59.0800000  0  4G 6G 8G11G 9
  -2813194.978 8  -4669817.789 8  20261716.077    20261715.212

   1314679.411 9   -349199.873 7  20507950.543    20507950.790

  -8931665.314 9  -8141135.993 8  21134711.647    21134708.365

 -16273125.357 9  12573484.254 8  21947190.216    21947188.176

 87  6 13 23 19 29.0800000  0  4G 6G 8G11G 9
  -2821270.587 8  -4676110.462 8  20260179.594    20260177.136

   1356618.962 9   -316519.699 8  20515931.986    20515929.560

  -8991110.758 9  -8187457.108 8  21123398.195    21123396.417

 -16364342.827 9  12502405.752 8  21929831.128    21929829.566

 87  6 13 23 19 59.0800000  0  4G 6G 8G11G 9
  -2828824.562 8  -4681996.696 8  20258741.503    20258739.512

   1399131.954 9   -283392.693 8  20524022.177    20524020.402

  -9050064.362 8  -8233394.963 7  21112180.777    21112178.818

 -16455312.670 9  12431520.195 8  21912519.581    21912518.700

 87  6 13 23 20 29.0800000  0  4G 6G 8G11G 9
  -2835854.443 8  -4687474.499 8  20257403.852    20257401.870

   1442217.582 9   -249819.482 7  20532220.349    20532219.262

  -9108523.996 9  -8278947.891 7  21101056.883    21101054.462

 -16546031.010 9  12360830.610 9  21895258.128    21895255.235

 87  6 13 23 20 59.0800000  0  4G 6G 8G11G 9
  -2842359.110 8  -4692543.079 8  20256165.734    20256165.361

   1485873.008 9   -215802.265 8  20540527.988    20540527.601

  -9166488.903 9  -8324115.348 7  21090025.502    21090024.463

 -16636495.633 9  12290338.730 8  21878042.270    21878040.000

 87  6 13 23 21 29.0800000  0  4G 6G 8G11G 9
  -2848337.408 8  -4697201.503 7  20255029.090    20255026.603

   1530095.334 9   -181343.309 7  20548943.978    20548942.839

  -9223958.259 9  -8368896.649 8  21079088.570    21079087.819

 -16726704.029 8  12220046.486 8  21860876.223    21860873.517

 87  6 13 23 21 59.0800000  0  4G 6G 8G11G 9
  -2853787.831 9  -4701448.578 9  20253992.084    20253990.685

   1574882.447 9   -146444.253 7  20557466.875    20557465.376

  -9280930.905 9  -8413290.886 7  21068247.917    21068246.859

 -16816653.434 9  12149956.068 8  21843759.596    21843756.532

 87  6 13 23 22 29.0800000  0  4G 6G 8G11G 9
  -2858708.629 8  -4705282.967 8  20253054.785    20253052.460

   1620232.638 9   -111106.458 9  20566096.309    20566095.358

  -9337405.640 9  -8457297.157 7  21057500.745    21057499.409

 -16906340.871 9  12080069.777 8  21826692.508    21826690.401

 87  6 13 23 22 59.0800000  0  4G 6G 8G11G 9
  -2863098.998 8  -4708704.039 9  20252220.255    20252217.992

   1666142.514 9    -75332.533 8  20574832.008    20574831.179

  -9393381.779 9  -8500914.895 6  21046849.942    21046847.433

 -16995764.183 8  12010389.290 9  21809675.942    21809673.829

 87  6 13 23 23 29.0800000  0  4G 6G 8G11G 9
  -2866957.181 8  -4711710.414 7  20251485.470    20251483.708

   1712610.200 9    -39123.941 8  20583674.100    20583672.941

  -9448857.901 9  -8544143.044 8  21036293.741    21036291.435

 -17084920.172 9  11940917.114 8  21792709.778    21792709.492

 87  6 13 23 23 59.0800000  0  4G 6G 8G11G 9
  -2870282.138 8  -4714301.291 8  20250852.489    20250852.029

   1759632.912 9     -2482.876 7  20592622.733    20592621.112

  -9503833.618 9  -8586981.245 7  21025832.242    21025829.706

 -17173806.619 9  11871654.966 8  21775795.981    21775794.327

 87  6 13 23 24 29.0800000  0  4G 6G 8G11G 9
  -2873072.481 9  -4716475.571 8  20250322.162    20250320.572

   1807208.491 9     34589.019 8  20601676.388    20601675.115

  -9558307.657 8  -8629428.509 7  21015465.540    21015462.270

 -17262420.595 9  11802605.134 8  21758932.352    21758932.200

 87  6 13 23 24 59.0800000  0  4G 6G 8G11G 9
  -2875327.190 8  -4718232.503 8  20249892.258    20249891.130

   1855333.707 9     72089.178 8  20610834.825    20610833.706

  -9612279.628 9  -8671484.565 8  21005193.314    21005192.889

 -17350759.853 9  11733769.372 8  21742121.643    21742121.017

 87  6 13 23 25 29.0800000  0  4G 6G 8G11G 9
  -2877044.368 9  -4719570.570 9  20249565.294    20249565.239

   1904006.942 9    110016.388 8  20620096.829    20620095.224

  -9665747.667 9  -8713147.959 7  20995020.145    20995018.137

 -17438820.759 9  11665150.532 8  21725365.665    21725364.051

 87  6 13 23 25 59.0800000  0  4G 6G 8G11G 9
  -2878223.392 8  -4720489.288 8  20249340.811    20249340.462

   1953224.951 9    148368.078 8  20629463.919    20629461.187

  -9718711.611 9  -8754418.552 8  20984942.170    20984938.516

 -17526601.453 9  11596750.019 8  21708661.217    21708659.672

 87  6 13 23 26 29.0800000  0  4G 6G 8G11G 9
  -2878862.677 8  -4720987.426 8  20249218.439    20249217.227

   2002985.874 9    187142.819 8  20638930.995    20638929.616

  -9771170.358 8  -8795295.464 7  20974958.381    20974955.038

 -17614098.585 9  11528570.477 9  21692010.142    21692009.433

 87  6 13 23 26 59.0800000  0  4G 6G 8G11G 9
  -2878961.036 8  -4721064.076 8  20249200.946    20249200.105

   2053286.717 9    226338.270 8  20648503.167    20648502.648

  -9823123.262 9  -8835778.217 7  20965072.177    20965069.444

 -17701309.848 9  11460613.685 8  21675414.095    21675413.640

 87  6 13 23 27 29.0800000  0  4G 6G 8G11G 9
  -2878517.321 8  -4720718.315 8  20249285.513    20249284.887

   2104125.190 8    265952.647 8  20658178.020    20658176.531

  -9874569.345 8  -8875866.047 7  20955282.134    20955280.164

 -17788232.370 9  11392881.881 8  21658873.584    21658872.342

 87  6 13 23 27 59.0800000  0  4G 6G 8G11G 9
  -2877530.449 9  -4719949.307 8  20249471.886    20249471.589

   2155498.293 9    305983.627 8  20667953.957    20667953.040

  -9925508.126 8  -8915558.588 8  20945587.365    20945586.354

 -17874863.747 9  11325376.938 8  21642387.781    21642386.562

 87  6 13 23 28 29.0800000  0  4G 6G 8G11G 9
  -2875999.209 8  -4718756.139 9  20249765.360    20249763.182

   2207403.731 9    346429.425 8  20677830.877    20677828.435

  -9975938.772 9  -8954855.178 7  20935993.492    20935990.327

 -17961200.879 9  11258101.271 9  21625959.231    21625957.832

 87  6 13 23 28 59.0800000  0  4G 6G 8G11G 9
  -2873922.308 8  -4717137.771 8  20250158.759    20250158.909

   2259839.030 9    387288.099 8  20687809.953    20687809.405

 -10025860.143 9  -8993754.924 7  20926492.320    20926491.380

 -18047241.017 9  11191057.051 8  21609586.945    21609584.132

 87  6 13 23 29 29.0800000  0  4G 6G 8G11G 9
  -2871298.453 8  -4715093.205 8  20250659.638    20250657.542

   2312801.844 9    428557.807 8  20697887.348    20697885.854

 -10075271.352 8  -9032257.144 8  20917089.044    20917088.070

 -18132981.153 9  11124246.578 9  21593270.551    21593268.424

 87  6 13 23 29 59.0800000  0  4G 6G 8G11G 9
  -2868127.297 8  -4712622.186 8  20251262.524    20251262.368

   2366288.604 9    470235.806 9  20708065.255    20708063.676

 -10124172.316 9  -9070361.768 8  20907783.589    20907781.841

 -18218419.637 9  11057671.164 8  21577011.656    21577009.870

 87  6 13 23 30 29.0800000  0  4G 6G 8G11G 9
  -2864407.010 9  -4709723.254 7  20251970.696    20251969.105

   2420297.269 9    512320.456 9  20718343.864    20718342.432

 -10172561.810 9  -9108067.846 8  20898576.216    20898574.030

 -18303552.704 8  10991333.726 8  21560810.720    21560809.289

 87  6 13 23 30 59.0800000  0  4G 6G 8G11G 9
  -2860136.513 9  -4706395.594 9  20252783.306    20252782.669

   2474825.637 9    554810.081 7  20728720.263    20728719.016

 -10220439.130 8  -9145374.828 8  20889465.745    20889463.927

 -18388377.512 8  10925236.507 9  21544670.363    21544668.151

 87  6 13 23 31 29.0800000  0  4G 6G 8G11G 9
  -2855315.018 7  -4702638.590 8  20253700.650    20253700.114

   2529870.464 9    597702.157 8  20739193.913    20739192.479

 -10267803.879 9  -9182282.408 8  20880453.828    20880450.631

 -18472891.724 9  10859381.286 8  21528587.501    21528585.821

 87  6 13 23 31 59.0800000  0  4G 6G 8G11G 9
  -2849941.387 8  -4698451.347 7  20254722.557    20254721.891

   2585429.092 9    640994.582 8  20749766.725    20749766.267

 -10314655.615 8  -9218790.249 8  20871537.359    20871535.325

 -18557092.336 9  10793770.443 8  21512564.742    21512562.822

 87  6 13 23 32 29.0800000  0  4G 6G 8G11G 9
  -2844014.656 9  -4693833.114 8  20255851.437    20255849.575

   2641498.882 9    684685.331 7  20760437.301    20760436.075

 -10360993.422 9  -9254897.596 8  20862719.028    20862716.823

 -18640976.688 9  10728406.038 8  21496601.425    21496600.909

 87  6 13 23 32 59.0800000  0  4G 6G 8G11G 9
  -2837533.790 8  -4688783.081 8  20257084.262    20257082.308

   2698077.392 9    728772.488 9  20771202.070    20771202.234

 -10406816.868 8  -9290604.145 8  20853999.359    20853997.384

 -18724542.192 8  10663290.087 9  21480699.270    21480698.546

 87  6 13 23 33 29.0800000  0  4G 6G 8G11G 9
  -2830497.689 9  -4683300.403 8  20258423.288    20258422.012

   2755161.866 9    773253.892 8  20782067.341    20782065.237

 -10452125.201 8  -9325909.321 8  20845375.810    20845375.150

 -18807785.702 9  10598425.048 8  21464858.605    21464858.015

 87  6 13 23 33 59.0800000  0  4G 6G 8G11G 9
  -2822905.398 8  -4677384.344 7  20259867.982    20259868.047

   2812749.687 9    818127.512 9  20793024.550    20793023.432

 -10496917.897 8  -9360812.704 8  20836854.635    20836850.449

 -18890704.384 9  10533813.116 9  21449078.668    21449078.725

 87  6 13 23 34 29.0800000  0  4G 6G 8G11G 9
  -2814756.197 8  -4671034.303 7  20261419.471    20261417.986

   2870837.756 9    863390.917 8  20804078.267    20804076.245

 -10541194.689 9  -9395314.090 7  20828426.974    20828425.188

 -18973295.707 9  10469456.282 8  21433364.450    21433361.746

 87  6 13 23 34 59.0800000  0  4G 6G 8G11G 9
  -2806048.933 8  -4664249.418 7  20263076.306    20263074.687

   2929423.694 9    909042.322 8  20815227.221    20815225.619

 -10584954.831 9  -9429412.873 7  20820100.561    20820097.859

 -19055556.813 9  10405356.749 8  21417709.112    21417707.606

 87  6 13 23 35 29.0800000  0  4G 6G 8G11G 9
  -2796782.647 8  -4657028.949 7  20264838.760    20264838.906

   2988504.593 9    955079.368 8  20826468.214    20826468.459

 -10628197.607 9  -9463108.524 7  20811871.307    20811870.444

 -19137484.870 9  10341516.723 9  21402118.085    21402117.529

 87  6 13 23 35 59.0800000  0  4G 6G 8G11G 9
  -2786956.470 8  -4649372.194 8  20266710.001    20266708.116

   3048077.872 9   1001500.098 9  20837806.398    20837804.438

 -10670922.619 8  -9496400.728 8  20803742.122    20803740.206

 -19219076.859 8  10277938.562 8  21386591.787    21386591.211

 87  6 13 23 36 29.0800000  0  4G 6G 8G11G 9
  -2776569.578 8  -4641278.506 8  20268685.235    20268684.660

   3108140.841 9   1048302.402 9  20849236.015    20849233.494

 -10713129.529 8  -9529289.205 7  20795709.812    20795707.650

 -19300330.406 8  10214624.153 8  21371130.481    21371128.321

 87  6 13 23 36 59.0800000  0  4G 6G 8G11G 9
  -2765621.254 8  -4632747.352 8  20270769.130    20270768.408

   3168690.377 9   1095483.859 8  20860758.895    20860756.848

 -10754818.003 8  -9561773.720 8  20787777.229    20787773.946

 -19381242.624 9  10151575.705 8  21355732.433    21355731.080

 87  6 13 23 37 29.0800000  0  4G 6G 8G11G 9
  -2754110.524 8  -4623777.937 8  20272958.639    20272958.904

   3229724.072 9   1143042.577 8  20872372.532    20872371.391

 -10795987.194 9  -9593853.603 7  20779943.014    20779940.472

 -19461810.589 8  10088795.508 7  21340401.548    21340400.045

 87  6 13 23 37 59.0800000  0  4G 6G 8G11G 9
  -2742036.319 8  -4614369.473 8  20275257.363    20275255.530

   3291239.283 9   1190976.502 9  20884078.572    20884077.083

 -10836636.415 9  -9625528.299 8  20772206.481    20772204.971

 -19542031.123 8  10026286.019 9  21325136.376    21325134.759

 87  6 13 23 38 29.0800000  0  4G 6G 8G11G 9
  -2729398.535 8  -4604521.849 8  20277662.919    20277661.334

   3353232.679 9   1239283.058 8  20895874.049    20895874.213

 -10876766.236 9  -9656798.280 8  20764571.116    20764568.420

 -19621902.192 9   9964048.843 8  21309935.686    21309936.173

 87  6 13 23 38 59.0800000  0  4G 6G 8G11G 9
  -2716195.519 9  -4594233.791 8  20280174.032    20280173.204

   3415702.318 9   1287960.683 8  20907763.182    20907761.914

 -10916375.384 8  -9687662.527 8  20757032.135    20757030.074

 -19701420.179 9   9902086.797 8  21294804.820    21294803.669

 87  6 13 23 39 29.0800000  0  4G 6G 8G11G 9
  -2702426.835 9  -4583504.943 8  20282794.990    20282793.286

   3478644.776 9   1337006.757 7  20919740.557    20919739.022

 -10955463.917 9  -9718121.105 8  20749595.212    20749593.354

 -19780582.353 9   9840402.024 8  21279741.132    21279739.756

 87  6 13 23 39 59.0800000  0  4G 6G 8G11G 9
  -2688092.203 8  -4572335.108 9  20285522.829    20285521.458

   3542056.992 9   1386418.843 8  20931806.701    20931805.928

 -10994031.764 8  -9748173.971 8  20742255.413    20742254.774

 -19859386.618 9   9778996.124 8  21264745.207    21264743.974

 87  6 13 23 40 29.0800000  0  4G 6G 8G11G 9
  -2673190.322 9  -4560723.271 8  20288358.090    20288357.217

   3605936.610 9   1436195.142 8  20943962.480    20943961.509

 -11032078.325 9  -9777820.613 7  20735016.040    20735014.137

 -19937829.403 9   9717871.882 8  21249817.005    21249818.241

 87  6 13 23 40 59.0800000  0  4G 6G 8G11G 9
  -2657720.963 8  -4548669.218 7  20291302.150    20291301.348

   3670280.101 9   1486332.933 8  20956207.035    20956204.415

 -11069603.307 9  -9807060.860 8  20727876.401    20727871.454

 -20015908.157 8   9657031.316 7  21234960.445    21234959.396

 87  6 13 23 41 29.0800000  0  4G 6G 8G11G 9
  -2641682.941 9  -4536172.080 9  20294353.940    20294353.090

   3735085.311 9   1536830.470 7  20968540.282    20968538.158

 -11106606.066 9  -9835894.146 7  20720833.601    20720830.832

 -20093619.798 9   9596476.831 8  21220171.615    21220171.735

 87  6 13 23 41 59.0800000  0  4G 6G 8G11G 9
  -2625075.963 9  -4523231.584 8  20297513.868    20297513.251

   3800349.239 9   1587685.481 8  20980959.662    20980957.509

 -11143086.889 8  -9864320.732 8  20713891.012    20713889.397

 -20170961.994 9   9536210.204 8  21205454.421    21205453.114

 87  6 13 23 42 29.0800000  0  4G 6G 8G11G 9
  -2607899.354 9  -4509847.205 8  20300783.090    20300781.451

   3866069.070 9   1638895.728 9  20993465.037    20993463.567

 -11179045.509 8  -9892340.420 8  20707048.704    20707046.859

 -20247931.612 9   9476233.896 7  21190807.612    21190806.894

 87  6 13 23 42 59.0800000  0  4G 6G 8G11G 9
  -2590152.310 8  -4496018.342 7  20304159.974    20304158.852

   3932242.316 9   1690459.303 8  21006056.602    21006055.037

 -11214481.739 9  -9919953.064 7  20700305.420    20700303.231

 -20324525.924 9   9416550.028 7  21176231.737    21176230.483

 87  6 13 23 43 29.0800000  0  4G 6G 8G11G 9
  -2571834.413 8  -4481744.657 8  20307645.350    20307643.260

   3998865.821 9   1742373.695 7  21018734.895    21018734.139

 -11249395.120 8  -9947158.271 7  20693660.383    20693660.333

 -20400742.165 9   9357160.775 9  21161729.971    21161727.810

 87  6 13 23 43 59.0800000  0  4G 6G 8G11G 9
  -2552945.282 8  -4467025.845 8  20311239.869    20311238.478

   4065936.121 9   1794636.256 8  21031496.942    21031495.761

 -11283785.919 9  -9973956.290 7  20687116.208    20687115.121

 -20476577.532 9   9298068.306 8  21147298.240    21147296.566

 87  6 13 23 44 29.0800000  0  4G 6G 8G11G 9
  -2533483.730 8  -4451861.014 8  20314943.623    20314942.437

   4133451.047 9   1847245.269 9  21044347.239    21044344.685

 -11317653.252 8 -10000346.394 7  20680672.559    20680671.555

 -20552028.683 8   9239275.236 8  21132940.557    21132938.465

 87  6 13 23 44 59.0800000  0  4G 6G 8G11G 9
  -2513449.656 8  -4436250.045 8  20318755.306    20318754.417

   4201407.428 9   1900198.279 8  21057276.449    21057275.285

 -11350997.472 9 -10026328.878 7  20674326.663    20674324.554

 -20627093.333 9   9180783.322 8  21118656.342    21118653.879

 87  6 13 23 45 29.0800000  0  4G 6G 8G11G 9
  -2492842.506 8  -4420192.536 7  20322678.792    20322676.719

   4269802.708 9   1953493.294 8  21070293.357    21070290.651

 -11383818.224 8 -10051903.473 8  20668080.566    20668079.490

 -20701768.383 8   9122595.000 8  21104444.292    21104443.769

 87  6 13 23 45 59.0800000  0  4G 6G 8G11G 9
  -2471661.635 7  -4403687.963 7  20326707.394    20326707.972

   4338634.066 9   2007128.098 7  21083390.674    21083389.676

 -11416115.307 9 -10077070.034 7  20661934.823    20661933.490

 -20776050.945 8   9064712.484 7  21090308.877    21090308.444

 87  6 13 23 46 29.0800000  0  4G 6G 8G11G 9
  -2449906.956 9  -4386736.270 7  20330846.089    20330846.001

   4407898.186 9   2061100.133 8  21096571.344    21096570.409

 -11447889.028 8 -10101828.777 6  20655888.934    20655887.185

 -20849938.560 9   9007137.741 8  21076249.528    21076248.129

 87  6 13 23 46 59.0800000  0  4G 6G 8G11G 9
  -2427577.608 8  -4369336.765 8  20335096.426    20335095.312

   4477592.335 9   2115407.251 8  21109834.364    21109833.688

 -11479138.816 8 -10126179.232 8  20649942.498    20649941.425

 -20923427.677 9   8949873.516 8  21062264.800    21062262.708

 87  6 13 23 47 29.0800000  0  4G 6G 8G11G 9
  -2404672.900 9  -4351488.965 7  20339456.370    20339454.976

   4547714.078 9   2170047.561 8  21123177.746    21123176.487

 -11509864.410 9 -10150121.242 8  20644095.720    20644093.850

 -20996515.967 9   8892921.627 8  21048356.191    21048355.020

 87  6 13 23 47 59.0800000  0  4G 6G 8G11G 9
  -2381193.564 8  -4333193.379 7  20343923.052    20343921.444

   4618259.499 9   2225018.036 7  21136602.296    21136601.247

 -11540066.992 8 -10173655.707 7  20638348.878    20638347.191

 -21069200.767 9   8836284.142 8  21034525.125    21034523.760

 87  6 13 23 48 29.0800000  0  4G 6G 8G11G 9
  -2357138.339 9  -4314449.073 8  20348500.907    20348498.878

   4689226.839 9   2280317.226 8  21150107.629    21150106.510

 -11569745.610 9 -10196781.889 7  20632700.324    20632700.305

 -21141478.922 9   8779963.519 8  21020771.467    21020768.574

 87  6 13 23 48 59.0800000  0  4G 6G 8G11G 9
  -2332507.394 8  -4295256.130 9  20353187.636    20353186.762

   4760612.216 9   2335942.193 9  21163691.320    21163690.018

 -11598900.877 8 -10219500.266 7  20627152.117    20627150.872

 -21213348.200 8   8723961.501 7  21007094.237    21007094.357

 87  6 13 23 49 29.0800000  0  4G 6G 8G11G 9
  -2307300.008 8  -4275614.032 9  20357985.576    20357982.613

   4832413.117 9   2391890.957 8  21177354.147    21177354.243

 -11627532.515 9 -10241810.637 8  20621704.132    20621702.324

 -21284805.527 9   8668280.488 8  20993496.892    20993495.012

 87  6 13 23 49 59.0800000  0  4G 6G 8G11G 9
  -2281515.983 9  -4255522.566 8  20362892.046    20362889.378

   4904626.953 9   2448161.454 8  21191095.864    21191095.693

 -11655640.488 9 -10263712.939 8  20616355.559    20616353.351

 -21355847.835 9   8612922.860 8  20979976.961    20979976.509

 87  6 13 23 50 29.0800000  0  4G 6G 8G11G 9
  -2255154.477 8  -4234981.133 8  20367907.657    20367906.520

   4977251.039 9   2504751.641 9  21204914.548    21204913.838

 -11683224.301 8 -10285206.808 8  20611105.144    20611104.113

 -21426472.100 9   8557890.981 9  20966539.232    20966538.070

 87  6 13 23 50 59.0800000  0  4G 6G 8G11G 9
  -2228216.051 8  -4213990.159 8  20373034.996    20373032.652

   5050281.735 9   2561658.683 9  21218812.265    21218810.772

 -11710285.046 8 -10306293.085 7  20605956.388    20605954.369

 -21496675.887 9   8503186.746 8  20953178.590    20953178.739

 87  6 13 23 51 29.0800000  0  4G 6G 8G11G 9
  -2200699.974 9  -4192549.055 8  20378269.956    20378268.767

   5123716.305 9   2618880.408 8  21232786.259    21232786.127

 -11736822.191 8 -10326971.371 7  20600907.060    20600904.662

 -21566456.127 9   8448812.551 9  20939900.742    20939899.998

 87  6 13 23 51 59.0800000  0  4G 6G 8G11G 9
  -2172606.298 8  -4170657.882 7  20383615.947    20383615.316

   5197551.855 9   2676414.600 8  21246837.569    21246836.341

 -11762836.477 8 -10347242.241 9  20595955.326    20595954.531

 -21635810.380 9   8394770.290 8  20926702.470    20926701.679

 87  6 13 23 52 29.0800000  0  4G 6G 8G11G 9
  -2143934.538 8  -4148316.269 8  20389072.464    20389071.822

   5271785.493 9   2734258.982 8  21260963.613    21260962.677

 -11788327.383 8 -10367105.262 8  20591104.908    20591104.585

 -21704735.311 9   8341062.551 8  20913587.562    20913585.229

 87  6 13 23 52 59.0800000  0  4G 6G 8G11G 9
  -2114684.777 9  -4125524.255 8  20394637.633    20394638.190

   5346414.056 9   2792411.104 7  21275165.233    21275163.760

 -11813295.462 8 -10386560.889 8  20586353.565    20586351.021

 -21773228.822 8   8287691.000 8  20900553.009    20900551.170

 87  6 13 23 53 29.0800000  0  4G 6G 8G11G 9
  -2180036.610 8  -4102282.370 8  20400315.006    20400227.076

   5363450.076 9   2850869.046 8  21289440.652    21289440.556

 -11874154.022 8 -10405608.978 7  20581702.963    20581701.398

 -21875261.797 9   8234656.438 9  20887602.397    20887599.808

 87  6 13 23 53 59.0800000  0  4G 6G 8G11G 9
  -2197010.890 8  -4078588.985 9  20406100.571    20406099.078

   5438860.074 9   2975666.074 9  21303791.351    21303788.728

 -11960869.342 9 -10424257.140 7  20577151.064    20577148.063

 -21968920.662 9   8181964.474 9  20874734.272    20874733.350

 87  6 13 23 54 29.0800000  0  4G 6G 8G11G 9
  -2166026.491 8  -4054445.305 8  20411996.513    20411994.475

   5514655.723 8   3034727.592 9  21318214.467    21318211.244

 -11984270.697 9 -10442491.958 8  20572696.468    20572695.595

 -22036102.630 9   8129614.910 7  20861949.976    20861948.911

 87  6 13 23 54 59.0800000  0  4G 6G 8G11G 9
  -2134463.329 9  -4029850.648 7  20418002.692    20418001.615

   5590835.028 9   3094088.043 8  21332711.343    21332710.044

 -12007149.732 9 -10460319.772 7  20568344.237    20568341.840

 -22102841.272 9   8077610.785 9  20849249.128    20849247.368

 87  6 13 23 55 29.0800000  0  4G 6G 8G11G 9
  -2102320.493 8  -4004804.288 8  20424118.843    20424119.019

   5667395.713 9   3153745.725 8  21347279.622    21347278.693

 -12029505.951 9 -10477740.180 8  20564087.663    20564087.572

 -22169133.195 9   8025954.742 8  20836634.625    20836632.836

 87  6 13 23 55 59.0800000  0  4G 6G 8G11G 9
  -2069599.046 9  -3979307.066 8  20430345.506    20430345.311

   5744333.755 9   3213697.457 8  21361920.534    21361920.437

 -12051341.000 8 -10494754.492 8  20559933.823    20559931.791

 -22234976.929 9   7974647.969 8  20824104.775    20824104.034

 87  6 13 23 56 29.0800000  0  4G 6G 8G11G 9
  -2036298.656 8  -3953358.726 8  20436682.258    20436681.614

   5821646.568 9   3273941.185 8  21376633.423    21376633.133

 -12072654.407 9 -10511362.336 6  20555878.278    20555876.099

 -22300369.032 8   7923693.093 7  20811661.750    20811660.067

 87  6 13 23 56 59.0800000  0  4G 6G 8G11G 9
  -2002419.574 9  -3926959.447 7  20443128.587    20443128.344

   5899330.922 9   3334474.444 7  21391414.426    21391415.064

 -12093447.025 9 -10527564.361 7  20551921.447    20551919.169

 -22365306.996 9   7873092.109 9  20799304.108    20799303.038

 87  6 13 23 57 29.0800000  0  4G 6G 8G11G 9
  -1967961.786 9  -3900109.245 7  20449686.796    20449685.518

   5977384.289 9   3395295.234 8  21406269.366    21406268.055

 -12113719.092 8 -10543360.768 7  20548063.308    20548061.402

 -22429788.291 9   7822846.968 8  20787032.768    20787033.025

 87  6 13 23 57 59.0800000  0  4G 6G 8G11G 9
  -1932925.405 9  -3872808.159 7  20456352.410    20456353.236

   6055803.282 9   3456400.945 8  21421192.999    21421191.221

 -12133471.331 8 -10558752.113 8  20544305.758    20544303.506

 -22493809.958 9   7772959.986 7  20774850.081    20774850.110

 87  6 13 23 58 29.0800000  0  4G 6G 8G11G 9
  -1897310.011 9  -3845055.921 7  20463131.934    20463130.451

   6134585.852 9   3517789.947 8  21436182.576    21436181.786

 -12152703.144 9 -10573737.931 8  20540645.273    20540643.221

 -22557368.942 8   7723433.519 8  20762756.118    20762754.761

 87  6 13 23 58 59.0800000  0  4G 6G 8G11G 9
  -1861115.965 9  -3816852.778 7  20470019.579    20470019.355

   6213728.259 9   3579459.359 8  21451243.976    21451241.389

 -12171415.523 9 -10588318.988 6  20537084.561    20537082.581

 -22620462.731 9   7674269.536 8  20750749.606    20750749.183

 87  6 13 23 59 29.0800000  0  4G 6G 8G11G 9
  -1824343.474 8  -3788198.897 7  20477014.858    20477015.544

   6293227.732 9   3641407.001 7  21466372.516    21466371.026

 -12189608.949 9 -10602495.678 8  20533622.406    20533621.133

 -22683088.686 9   7625470.122 8  20738832.673    20738831.388

 87  6 13 23 59 59.0800000  0  4G 6G 8G11G 9
  -1786992.639 8  -3759094.370 7  20484123.702    20484122.319

   6373081.501 9   3703630.697 9  21481567.797    21481566.420

 -12207283.617 8 -10616268.151 6  20530258.408    20530257.656

 -22745243.971 9   7577037.444 8  20727004.451    20727004.217

 87  6 14  0  0 29.0800000  0  4G 6G 8G11G 9
  -1749063.662 9  -3729539.331 8  20491341.394    20491341.108

   6453286.587 9   3766128.155 9  21496830.814    21496828.356

 -12224440.172 9 -10629636.878 8  20526993.671    20526992.426

 -22806925.871 9   7528973.645 9  20715266.108    20715265.797

 87  6 14  0  0 59.0800000  0  4G 6G 8G11G 9
  -1710556.428 8  -3699533.704 7  20498669.820    20498668.574

   6533840.123 9   3828897.122 8  21512158.795    21512158.366

 -12241078.903 9 -10642602.110 7  20523828.514    20523827.576

 -22868131.889 9   7481280.660 9  20703619.050    20703618.989

 87  6 14  0  1 29.0800000  0  4G 6G 8G11G 9
  -1671471.655 9  -3669078.051 6  20506107.252    20506107.781

   6614738.668 9   3891934.931 9  21527553.835    21527553.215

 -12257200.425 9 -10655164.316 8  20520760.254    20520758.954

 -22928859.372 9   7433960.575 8  20692063.718    20692062.725

 87  6 14  0  1 59.0800000  0  4G 6G 8G11G 9
  -1631809.075 8  -3638172.150 8  20513654.541    20513654.087

   6695979.736 9   3955239.662 8  21543013.396    21543013.098

 -12272804.868 8 -10667323.623 8  20517790.541    20517788.839

 -22989105.062 9   7387015.878 9  20680599.691    20680598.601

 87  6 14  0  2 29.0800000  0  4G 6G 8G11G 9
  -1591568.938 9  -3606816.199 8  20521311.933    20521310.930

   6777560.595 9   4018809.132 8  21558538.330    21558536.387

 -12287892.870 9 -10679080.502 7  20514917.754    20514917.397

 -23048866.244 9   7340448.749 9  20669227.039    20669226.393

 87  6 14  0  2 59.0800000  0  4G 6G 8G11G 9
  -1550751.782 9  -3575010.621 7  20529079.562    20529078.501

   6859477.983 8   4082640.851 8  21574125.996    21574125.370

 -12302465.491 8 -10690435.788 7  20512145.039    20512145.480

 -23108140.832 9   7294260.779 8  20657948.002    20657946.516

 87  6 14  0  3 29.0800000  0  4G 6G 8G11G 9
  -1509357.728 9  -3542755.535 8  20536956.274    20536956.597

   6941729.290 9   4146732.758 8  21589778.278    21589776.209

 -12316522.536 9 -10701389.322 7  20509470.996    20509469.994

 -23166925.965 9   7248454.199 9  20646760.053    20646759.233

 87  6 14  0  3 59.0800000  0  4G 6G 8G11G 9
  -1467387.201 9  -3510051.235 7  20544943.254    20544943.148

   7024311.348 9   4211082.410 8  21605492.724    21605489.778

 -12330064.842 9 -10711941.774 7  20506894.826    20506892.870

 -23225218.589 9   7203031.369 8  20635668.908    20635666.522

 87  6 14  0  4 29.0800000  0  4G 6G 8G11G 9
  -1424840.550 9  -3476898.017 7  20553039.403    20553039.274

   7107220.989 8   4275687.302 8  21621271.301    21621268.971

 -12343093.123 9 -10722093.657 7  20504415.016    20504415.378

 -23283016.374 9   7157994.138 9  20624670.600    20624668.770

 87  6 14  0  4 59.0800000  0  4G 6G 8G11G 9
  -1381717.942 8  -3443295.977 8  20561246.657    20561245.440

   7190455.951 9   4340545.720 7  21637107.631    21637106.718

 -12355607.717 8 -10731845.274 8  20502032.703    20502032.707

 -23340316.433 9   7113344.758 8  20613766.158    20613764.434

 87  6 14  0  5 29.0800000  0  4G 6G 8G11G 9
  -1338019.773 9  -3409245.469 7  20569561.489    20569560.778

   7274013.197 9   4405655.228 8  21653010.898    21653008.594

 -12367609.429 9 -10741197.255 7  20499750.301    20499749.152

 -23397116.073 8   7069085.305 8  20602956.355    20602955.570

 87  6 14  0  5 59.0800000  0  4G 6G 8G11G 9
  -1293746.688 9  -3374746.978 7  20577985.300    20577984.593

   7357889.554 9   4471013.412 8  21668971.406    21668969.340

 -12379098.934 9 -10750150.106 7  20497563.474    20497561.555

 -23453412.872 9   7025217.690 8  20592244.412    20592242.247

 87  6 14  0  6 29.0800000  0  4G 6G 8G11G 9
  -1248898.743 9  -3339800.527 8  20586517.782    20586519.476

   7442082.608 9   4536618.359 8  21684992.076    21684990.899

 -12390076.629 8 -10758704.148 7  20495473.663    20495473.113

 -23509203.928 9   6981744.141 8  20581627.446    20581626.491

 87  6 14  0  6 59.0800000  0  4G 6G 8G11G 9
  -1203476.729 8  -3304406.752 7  20595163.750    20595162.212

   7526589.000 9   4602467.508 8  21701073.714    21701072.301

 -12400543.627 8 -10766860.240 7  20493481.567    20493480.644

 -23564486.948 9   6938666.472 8  20571108.024    20571105.749

 87  6 14  0  7 29.0800000  0  4G 6G 8G11G 9
  -1157481.145 9  -3268566.045 8  20603916.586    20603915.230

   7611406.046 9   4668558.667 9  21717213.363    21717212.513

 -12410500.428 9 -10774618.791 8  20491586.384    20491586.694

 -23619259.454 9   6895986.615 8  20560683.605    20560683.894

 87  6 14  0  7 59.0800000  0  4G 6G 8G11G 9
  -1110912.317 9  -3232278.647 8  20612778.622    20612776.654

   7696530.436 9   4734889.362 9  21733411.858    21733411.457

 -12419947.608 8 -10781980.226 7  20489789.540    20489788.909

 -23673518.481 9   6853706.863 8  20550360.080    20550358.680

 87  6 14  0  8 29.0800000  0  4G 6G 8G11G 9
  -1063771.017 9  -3195545.166 8  20621748.142    20621748.183

   7781958.933 9   4801456.997 9  21749669.349    21749666.852

 -12428885.982 8 -10788945.173 7  20488089.718    20488086.964

 -23727261.672 9   6811829.063 8  20540131.712    20540130.422

 87  6 14  0  8 59.0800000  0  4G 6G 8G11G 9
  -1016057.467 9  -3158365.783 8  20630828.402    20630828.143

   7867689.149 9   4868259.761 8  21765981.362    21765981.911

 -12437316.219 8 -10795514.192 7  20486485.961    20486484.053

 -23780486.250 8   6770355.371 9  20530003.292    20530003.413

 87  6 14  0  9 29.0800000  0  4G 6G 8G11G 9
   -967772.180 9  -3120740.922 8  20640017.496    20640015.103

   7953718.738 8   4935295.796 8  21782353.538    21782352.301

 -12445239.272 9 -10801687.986 7  20484978.317    20484975.439

 -23833189.765 8   6729287.703 8  20519974.765    20519973.765

 87  6 14  0  9 59.0800000  0  4G 6G 8G11G 9
   -918916.002 9  -3082671.195 8  20649312.410    20649313.966

   8040044.345 9   5002562.464 8  21798780.397    21798779.419

 -12452655.615 8 -10807466.960 7  20483567.035    20483563.663

 -23885369.533 8   6688628.158 8  20510044.615    20510044.262

 87  6 14  0 10 29.0800000  0  4G 6G 8G11G 9
   -869489.201 9  -3044156.812 7  20658719.031    20658717.627

   8126663.378 9   5070057.831 9  21815264.446    21815261.075

 -12459565.964 8 -10812851.636 8  20482252.080    20482248.576

 -23937022.631 9   6648378.998 8  20500215.957    20500216.029

 87  6 14  0 10 59.0800000  0  4G 6G 8G11G 9
   -819492.620 8  -3005198.467 8  20668233.093    20668232.927

   8213572.912 9   5137779.488 9  21831802.107    21831799.592

 -12465971.214 8 -10817842.728 8  20481032.090    20481030.397

 -23988146.854 9   6608541.942 7  20490487.880    20490486.494

 87  6 14  0 11 29.0800000  0  4G 6G 8G11G 9
   -768926.863 8  -2965796.594 8  20677856.300    20677854.549

   8300769.704 9   5205725.028 9  21848394.773    21848393.933

 -12471872.340 8 -10822440.992 7  20479908.653    20479906.551

 -24038739.875 9   6569118.817 8  20480860.271    20480858.878

 87  6 14  0 11 59.0800000  0  4G 6G 8G11G 9
   -717792.562 9  -2925951.715 8  20687585.526    20687585.294

   8388251.536 8   5273892.647 8  21865041.576    21865040.972

 -12477270.105 9 -10826647.050 6  20478880.220    20478881.370

 -24088798.774 9   6530111.890 8  20471334.807    20471333.371

 87  6 14  0 12 29.0800000  0  4G 6G 8G11G 9
   -666090.327 8  -2885664.272 8  20697425.247    20697424.186

   8476015.231 9   5342279.907 9  21881743.326    21881740.572

 -12482165.221 8 -10830461.421 6  20477949.199    20477949.161

 -24138321.559 9   6491522.726 8  20461910.754    20461909.020

 87  6 14  0 12 59.0800000  0  4G 6G 8G11G 9
   -613821.382 8  -2844935.232 7  20707370.960    20707371.253

   8564057.591 9   5410884.298 8  21898498.163    21898496.022

 -12486559.006 8 -10833885.127 6  20477114.035    20477111.891

 -24187305.554 9   6453353.387 8  20452588.430    20452587.896

 87  6 14  0 13 29.0800000  0  4G 6G 8G11G 9
   -560985.584 9  -2803764.491 9  20717426.590    20717423.891

   8652376.698 8   5479704.371 7  21915303.838    21915302.468

 -12490451.536 8 -10836918.277 8  20476372.105    20476371.286

 -24235747.923 9   6415606.093 8  20443370.675    20443369.952

 87  6 14  0 13 59.0800000  0  4G 6G 8G11G 9
   -507584.671 9  -2762153.392 8  20727587.593    20727585.966

   8740968.372 9   5548736.826 9  21932162.295    21932159.278

 -12493844.863 9 -10839562.413 8  20475728.124    20475725.559

 -24283646.750 9   6378282.351 7  20434256.628    20434254.671

 87  6 14  0 14 29.0800000  0  4G 6G 8G11G 9
   -453618.804 8  -2720102.082 8  20737857.296    20737854.966

   8829830.301 9   5617979.872 9  21949072.051    21949070.146

 -12496738.958 7 -10841817.544 7  20475176.221    20475175.919

 -24330999.184 9   6341384.338 8  20425243.760    20425243.302

 87  6 14  0 14 59.0800000  0  4G 6G 8G11G 9
   -399089.095 8  -2677611.417 8  20748233.807    20748232.311

   8918959.540 9   5687431.172 8  21966032.725    21966030.307

 -12499135.408 8 -10843684.899 7  20474721.703    20474719.164

 -24377803.037 9   6304913.810 9  20416338.122    20416336.745

 87  6 14  0 15 29.0800000  0  4G 6G 8G11G 9
   -343996.000 8  -2634681.765 8  20758718.127    20758716.833

   9008354.225 9   5757089.368 9  21983044.363    21983042.312

 -12501034.275 8 -10845164.540 8  20474359.412    20474358.409

 -24424055.538 9   6268872.910 7  20407536.413    20407535.483

 87  6 14  0 15 59.0800000  0  4G 6G 8G11G 9
   -288341.106 9  -2591314.318 8  20769307.606    20769306.671

   9098010.440 8   5826951.345 9  22000105.629    22000103.133

 -12502437.509 8 -10846257.947 8  20474092.044    20474091.089

 -24469754.724 8   6233263.162 7  20398840.681    20398839.005

 87  6 14  0 16 29.0800000  0  4G 6G 8G11G 9
   -232124.403 8  -2547509.120 8  20780006.188    20780004.342

   9187926.345 9   5897015.637 8  22017215.943    22017213.639

 -12503345.387 9 -10846965.390 7  20473918.823    20473917.490

 -24514897.712 8   6198086.826 7  20390249.400    20390248.394

 87  6 14  0 16 59.0800000  0  4G 6G 8G11G 9
   -175347.072 9  -2503267.050 7  20790810.626    20790810.391

   9278098.708 9   5967279.796 9  22034375.302    22034371.499

 -12503759.039 8 -10847287.711 8  20473841.199    20473840.082

 -24559482.406 8   6163345.511 8  20381765.267    20381764.805

 87  6 14  0 17 29.0800000  0  4G 6G 8G11G 9
   -118010.056 9  -2458588.898 7  20801721.759    20801720.352

   9368524.779 9   6037741.653 9  22051582.706    22051580.326

 -12503679.262 8 -10847225.543 7  20473855.619    20473854.833

 -24603506.202 9   6129041.273 7  20373389.146    20373387.115

 87  6 14  0 17 59.0800000  0  4G 6G 8G11G 9
    -60114.557 8  -2413475.540 7  20812739.651    20812738.006

   9459201.400 9   6108398.720 8  22068838.054    22068837.380

 -12503107.608 8 -10846780.094 8  20473965.525    20473963.002

 -24646967.228 8   6095175.555 7  20365118.112    20365116.763

 87  6 14  0 18 29.0800000  0  4G 6G 8G11G 9
     -1661.305 9  -2367927.568 8  20823863.054    20823860.860

   9550125.896 9   6179248.974 9  22086139.797    22086138.139

 -12502044.623 8 -10845951.801 7  20474167.961    20474165.784

 -24689862.833 9   6061750.426 8  20356955.317    20356954.532

 87  6 14  0 18 59.0800000  0  4G 6G 8G11G 9
     57348.537 9  -2321945.867 7  20835093.072    20835090.290

   9641295.605 8   6250290.286 8  22103489.207    22103487.650

 -12500491.683 8 -10844741.708 6  20474463.166    20474461.409

 -24732190.903 8   6028767.538 9  20348899.704    20348899.600

 87  6 14  0 19 29.0800000  0  4G 6G 8G11G 9
    116914.299 9  -2275530.997 7  20846426.750    20846425.693

   9732708.434 8   6321521.055 8  22120883.927    22120883.942

 -12498449.332 8 -10843150.266 7  20474850.849    20474848.923

 -24773948.633 9   5996229.060 8  20340953.654    20340953.494

 87  6 14  0 19 59.0800000  0  4G 6G 8G11G 9
    177034.525 8  -2228684.067 7  20857866.603    20857865.492

   9824360.735 9   6392938.429 8  22138325.147    22138323.051

 -12495919.258 8 -10841178.782 8  20475333.458    20475330.661

 -24815133.993 9   5964136.577 8  20333118.177    20333115.005

 87  6 14  0 20 29.0800000  0  4G 6G 8G11G 9
    237708.360 9  -2181405.773 7  20869412.322    20869411.331

   9916250.117 9   6464540.517 8  22155810.469    22155810.410

 -12492902.185 8 -10838827.812 7  20475907.006    20475904.769

 -24855744.718 9   5932491.857 8  20325389.152    20325387.590

 87  6 14  0 20 59.0800000  0  4G 6G 8G11G 9
    298934.927 9  -2133696.768 9  20881064.341    20881062.709

  10008373.986 9   6536325.327 8  22173341.538    22173339.635

 -12489399.537 8 -10836098.475 7  20476572.956    20476571.910

 -24895778.615 9   5901296.641 8  20317770.770    20317769.135

 87  6 14  0 21 29.0800000  0  4G 6G 8G11G 9
    360712.872 9  -2085558.126 7  20892819.657    20892818.830

  10100729.303 9   6608290.521 8  22190916.370    22190914.497

 -12485412.385 9 -10832991.588 7  20477331.597    20477331.520

 -24935233.218 9   5870552.807 8  20310263.346    20310262.092

 87  6 14  0 21 59.0800000  0  4G 6G 8G11G 9
    423041.405 8  -2036990.460 7  20904679.878    20904678.464

  10193313.715 9   6680434.191 9  22208533.819    22208533.892

 -12480941.282 9 -10829507.604 7  20478182.209    20478182.362

 -24974106.597 8   5840261.887 9  20302865.668    20302864.001

 87  6 14  0 22 29.0800000  0  4G 6G 8G11G 9
    485919.240 9  -1987994.753 8  20916646.180    20916645.649

  10286124.169 9   6752754.032 8  22226197.176    22226193.756

 -12475987.889 9 -10825647.810 7  20479126.308    20479123.558

 -25012396.244 9   5810425.811 8  20295579.461    20295577.826

 87  6 14  0 22 59.0800000  0  4G 6G 8G11G 9
    549344.757 9  -1938572.302 7  20928716.205    20928714.167

  10379157.111 8   6825247.194 9  22243899.829    22243898.628

 -12470553.788 8 -10821413.449 6  20480160.240    20480158.544

 -25050100.806 8   5781045.634 8  20288403.686    20288404.150

 87  6 14  0 23 29.0800000  0  4G 6G 8G11G 9
    613317.514 9  -1888723.408 8  20940888.266    20940887.971

  10472411.421 9   6897912.852 8  22261644.719    22261644.453

 -12464639.046 9 -10816804.563 7  20481285.252    20481284.532

 -25087217.262 8   5752123.729 8  20281340.920    20281339.509

 87  6 14  0 23 59.0800000  0  4G 6G 8G11G 9
    677836.143 9  -1838449.150 8  20953164.565    20953164.352

  10565883.821 8   6970748.474 9  22279432.300    22279429.625

 -12458245.202 9 -10811822.342 8  20482501.413    20482501.315

 -25123743.126 8   5723662.025 7  20274391.100    20274389.980

 87  6 14  0 24 29.0800000  0  4G 6G 8G11G 9
    742899.343 9  -1787750.580 7  20965547.038    20965546.585

  10659571.436 9   7043751.769 9  22297261.001    22297257.848

 -12451373.628 9 -10806467.896 8  20483810.706    20483809.901

 -25159676.824 9   5695661.757 8  20267552.526    20267552.102

 87  6 14  0 24 59.0800000  0  4G 6G 8G11G 9
    808505.446 9  -1736628.960 9  20978032.240    20978030.390

  10753471.237 9   7116920.412 8  22315128.309    22315128.665

 -12444025.929 9 -10800742.385 8  20485208.646    20485207.497

 -25195016.485 9   5668124.359 8  20260827.519    20260826.266

 87  6 14  0 25 29.0800000  0  4G 6G 8G11G 9
    874653.618 9  -1685084.956 7  20990617.754    20990618.328

  10847580.853 8   7190252.589 9  22333037.538    22333036.086

 -12436203.092 8 -10794646.657 8  20486696.190    20486695.153

 -25229759.546 9   5641051.857 9  20254216.824    20254214.864

 87  6 14  0 25 59.0800000  0  4G 6G 8G11G 9
    941342.634 9  -1633119.506 7  21003308.628    21003309.302

  10941897.825 8   7263746.281 9  22350986.032    22350984.592

 -12427906.025 9 -10788181.422 8  20488275.910    20488273.478

 -25263904.102 8   5614445.711 8  20247718.979    20247717.612

 87  6 14  0 26 29.0800000  0  4G 6G 8G11G 9
   1008571.015 9  -1580733.751 8  21016102.431    21016102.328

  11036418.870 9   7337399.006 9  22368973.059    22368968.900

 -12419136.285 9 -10781347.847 8  20489944.859    20489943.066

 -25297448.071 8   5588307.582 7  20241336.157    20241333.832

 87  6 14  0 26 59.0800000  0  4G 6G 8G11G 9
   1076337.644 9  -1527928.582 7  21028998.909    21028997.314

  11131142.131 9   7411209.299 9  22386997.702    22386994.476

 -12409894.802 8 -10774146.701 8  20491702.717    20491701.965

 -25330389.082 9   5562639.276 8  20235067.981    20235066.232

 87  6 14  0 27 29.0800000  0  4G 6G 8G11G 9
   1144641.052 9  -1474705.174 8  21041996.468    21041994.672

  11226064.862 8   7485174.992 8  22405061.663    22405060.045

 -12400182.966 9 -10766579.038 7  20493552.049    20493550.301

 -25362725.510 8   5537442.058 8  20228913.822    20228911.313

 87  6 14  0 27 59.0800000  0  4G 6G 8G11G 9
   1213479.799 9  -1421064.639 8  21055094.483    21055093.599

  11321184.183 9   7559293.963 8  22423160.223    22423160.206

 -12390002.465 8 -10758646.188 9  20495488.958    20495487.011

 -25394455.293 9   5512717.572 8  20222876.141    20222874.034

 87  6 14  0 28 29.0800000  0  4G 6G 8G11G 9
   1282852.184 9  -1367008.274 8  21068295.485    21068297.294

  11416497.457 9   7633563.989 9  22441299.136    22441297.778

 -12379354.630 8 -10750349.172 8  20497514.843    20497513.960

 -25425576.848 8   5488467.010 8  20216954.186    20216952.317

 87  6 14  0 28 59.0800000  0  4G 6G 8G11G 9
   1352757.603 9  -1312536.517 8  21081599.470    21081598.466

  11512002.505 8   7707983.501 7  22459473.707    22459470.913

 -12368239.970 9 -10741688.394 8  20499629.973    20499628.931

 -25456087.439 8   5464692.530 8  20211146.416    20211147.438

 87  6 14  0 29 29.0800000  0  4G 6G 8G11G 9
   1423193.756 9  -1257651.243 8  21095002.289    21095002.175

  11607695.636 8   7782549.530 8  22477683.323    22477680.646

 -12356660.600 9 -10732665.510 8  20501833.250    20501833.363

 -25485985.899 9   5441395.025 8  20205458.724    20205457.578

 87  6 14  0 29 59.0800000  0  4G 6G 8G11G 9
   1494160.170 9  -1202352.732 8  21108507.659    21108507.425

  11703575.290 9   7857260.900 9  22495927.898    22495925.867

 -12344617.256 9 -10723281.075 8  20504124.777    20504123.531

 -25515269.146 9   5418576.922 9  20199885.248    20199884.593

 87  6 14  0 30 29.0800000  0  4G 6G 8G11G 9
   1565654.709 9  -1146642.726 8  21122113.184    21122112.210

  11799638.578 9   7932115.407 9  22514207.752    22514206.862

 -12332111.930 9 -10713536.651 8  20506504.047    20506502.333

 -25543936.030 8   5396239.096 8  20194430.280    20194428.239

 87  6 14  0 30 59.0800000  0  4G 6G 8G11G 9
   1637675.968 9  -1090522.268 8  21135817.490    21135816.351

  11895882.479 9   8007110.644 9  22532524.033    22532521.846

 -12319145.740 9 -10703433.122 7  20508972.029    20508970.012

 -25571984.585 8   5374383.085 8  20189093.492    20189091.568

 87  6 14  0 31 29.0800000  0  4G 6G 8G11G 9
   1710222.763 9  -1033992.322 8  21149623.809    21149621.671

  11992304.814 9   8082244.909 8  22550872.080    22550870.123

 -12305719.687 8 -10692971.256 8  20511526.615    20511524.913

 -25599412.995 9   5353010.302 8  20183873.999    20183872.355

 87  6 14  0 31 59.0800000  0  4G 6G 8G11G 9
   1783293.361 9   -977054.219 9  21163527.937    21163526.258

  12088903.099 9   8157516.229 9  22569254.282    22569252.204

 -12291835.167 9 -10682152.161 7  20514169.599    20514168.289

 -25626219.475 8   5332122.146 8  20178772.092    20178771.718

 87  6 14  0 32 29.0800000  0  4G 6G 8G11G 9
   1856886.252 9   -919709.132 9  21177532.719    21177531.015

  12185674.694 9   8232922.651 7  22587670.481    22587667.845

 -12277493.986 8 -10670977.195 8  20516898.998    20516896.953

 -25652401.862 8   5311720.296 8  20173790.636    20173788.855

 87  6 14  0 32 59.0800000  0  4G 6G 8G11G 9
   1930999.788 9   -861958.338 8  21191636.093    21191634.215

  12282617.311 9   8308462.328 8  22606117.855    22606113.660

 -12262697.274 9 -10659447.287 8  20519714.556    20519712.419

 -25677958.775 7   5291805.807 8  20168926.878    20168924.319

 87  6 14  0 33 29.0800000  0  4G 6G 8G11G 9
   2005632.389 9   -803803.072 8  21205836.572    21205837.491

  12379727.931 8   8384132.875 9  22624596.521    22624594.780

 -12247446.491 8 -10647563.572 9  20522615.143    20522615.205

 -25702888.442 9   5272380.102 8  20164181.585    20164181.946

 87  6 14  0 33 59.0800000  0  4G 6G 8G11G 9
   2080782.562 9   -745244.499 8  21220137.865    21220138.248

  12477004.324 9   8459932.645 8  22643107.391    22643105.654

 -12231743.050 8 -10635327.128 7  20525604.328    20525603.440

 -25727188.643 9   5253444.887 9  20159559.034    20159556.535

 87  6 14  0 34 29.0800000  0  4G 6G 8G11G 9
   2156448.378 9   -686284.148 8  21234536.384    21234535.705

  12574443.516 9   8535859.243 9  22661649.144    22661649.183

 -12215588.906 7 -10622739.491 7  20528677.406    20528675.964

 -25750858.211 7   5235001.077 7  20155054.747    20155053.985

 87  6 14  0 34 59.0800000  0  4G 6G 8G11G 9
   2232628.890 8   -626922.729 9  21249033.973    21249031.861

  12672043.803 9   8611911.424 8  22680221.878    22680219.733

 -12198984.581 8 -10609801.029 8  20531837.574    20531835.267

 -25773894.876 8   5217050.426 7  20150671.838    20150669.847

 87  6 14  0 35 29.0800000  0  4G 6G 8G11G 9
   2309321.512 8   -567162.261 8  21263627.069    21263626.212

  12769801.972 8   8688086.578 8  22698824.604    22698821.412

 -12181932.303 8 -10596513.558 8  20535083.661    20535082.464

 -25796297.578 8   5199593.785 9  20146407.919    20146405.573

 87  6 14  0 35 59.0800000  0  4G 6G 8G11G 9
   2386525.586 9   -507003.261 7  21278318.616    21278318.696

  12867716.288 8   8764383.452 8  22717457.638    22717455.979

 -12164432.676 8 -10582877.492 8  20538412.873    20538412.905

 -25818063.788 8   5182633.086 8  20142263.460    20142265.435

 87  6 14  0 36 29.0800000  0  4G 6G 8G11G 9
   2464238.743 9   -446447.579 9  21293107.451    21293107.648

  12965783.393 8   8840799.325 9  22736119.359    22736117.619

 -12146487.843 8 -10568894.503 7  20541827.305    20541825.798

 -25839192.718 8   5166169.000 7  20138244.350    20138243.922

 87  6 14  0 36 59.0800000  0  4G 6G 8G11G 9
   2542459.436 9   -385496.394 8  21307993.741    21307990.728

  13064001.110 8   8917332.579 9  22754810.083    22754806.047

 -12128099.322 9 -10554565.766 8  20545326.933    20545325.002

 -25859682.287 8   5150203.120 8  20134346.123    20134346.125

 87  6 14  0 37 29.0800000  0  4G 6G 8G11G 9
   2621185.921 9   -324151.092 8  21322973.124    21322973.375

  13162367.236 8   8993981.453 8  22773528.563    22773525.302

 -12109268.236 8 -10539892.201 8  20548910.064    20548907.664

 -25879531.122 8   5134736.495 6  20130568.013    20130567.285

 87  6 14  0 37 59.0800000  0  4G 6G 8G11G 9
   2700416.571 9   -262412.953 8  21338051.756    21338050.060

  13260879.310 9   9070744.043 9  22792274.148    22792272.474

 -12089995.933 9 -10524874.824 7  20552578.742    20552576.101

 -25898737.335 8   5119770.625 8  20126914.650    20126912.601

 87  6 14  0 38 29.0800000  0  4G 6G 8G11G 9
   2780149.441 8   -200283.496 8  21353224.149    21353222.613

  13359534.381 7   9147618.129 9  22811046.133    22811044.561

 -12070284.883 8 -10509515.564 7  20556327.521    20556326.100

 -25917299.723 8   5105306.441 7  20123381.466    20123380.394

 87  6 14  0 38 59.0800000  0  4G 6G 8G11G 9
   2860382.951 9   -137763.887 7  21368490.937    21368490.615

  13458330.345 8   9224601.908 8  22829848.075    22829844.994

 -12050135.718 9 -10493814.910 8  20560162.042    20560161.947

 -25935216.422 8   5091345.366 8  20119971.498    20119971.056

 87  6 14  0 39 29.0800000  0  4G 6G 8G11G 9
   2941115.145 9    -74855.707 8  21383855.173    21383853.337

  13557264.762 9   9301693.668 9  22848674.520    22848670.314

 -12029550.011 8 -10477774.100 8  20564080.324    20564079.458

 -25952486.043 8   5077888.529 8  20116685.615    20116685.187

 87  6 14  0 39 59.0800000  0  4G 6G 8G11G 9
   3022344.474 9    -11560.148 8  21399311.853    21399310.878

  13656335.460 8   9378891.548 8  22867525.957    22867525.048

 -12008529.545 8 -10461394.517 8  20568080.682    20568079.290

 -25969107.080 8   5064937.073 8  20113522.461    20113521.707

 87  6 14  0 40 29.0800000  0  4G 6G 8G11G 9
   3104069.022 9     52121.302 8  21414865.115    21414862.824

  13755539.801 8   9456193.612 8  22886403.358    22886402.370

 -11987075.649 9 -10444677.194 7  20572163.205    20572161.859

 -25985077.831 9   5052492.347 8  20110483.554    20110482.196

 87  6 14  0 40 59.0800000  0  4G 6G 8G11G 9
   3186286.677 9    116186.975 8  21430509.536    21430508.068

  13854875.216 9   9533597.819 8  22905308.314    22905305.872

 -11965189.913 8 -10427623.384 8  20576327.695    20576326.231

 -26000397.659 8   5040554.839 8  20107568.217    20107566.811

 87  6 14  0 41 29.0800000  0  4G 6G 8G11G 9
   3268995.682 9    180635.536 8  21446248.602    21446247.927

  13954339.430 8   9611102.381 8  22924235.267    22924232.672

 -11942873.904 9 -10410234.300 8  20580574.819    20580572.156

 -26015064.717 8   5029125.964 7  20104776.057    20104776.554

 87  6 14  0 41 59.0800000  0  4G 6G 8G11G 9
   3352194.383 9    245465.651 9  21462080.396    21462079.565

  14053930.769 8   9688706.000 9  22943185.515    22943185.811

 -11920129.535 9 -10392511.399 7  20584902.257    20584901.168

 -26029077.467 9   5018206.948 7  20102110.292    20102110.008

 87  6 14  0 42 29.0800000  0  4G 6G 8G11G 9
   3435880.106 9    310675.287 8  21478004.491    21478003.984

  14153645.566 8   9766405.809 8  22962162.926    22962159.507

 -11896958.681 9 -10374456.196 8  20589312.094    20589310.137

 -26042435.465 8   5007798.112 6  20099567.143    20099567.368

 87  6 14  0 42 59.0800000  0  4G 6G 8G11G 9
   3520052.101 9    376263.831 8  21494021.299    21494021.893

  14253483.214 9   9844201.356 8  22981159.237    22981157.329

 -11873361.693 8 -10356068.936 8  20593801.775    20593800.122

 -26055135.876 8   4997901.679 7  20097150.797    20097151.144

 87  6 14  0 43 29.0800000  0  4G 6G 8G11G 9
   3604707.620 9    442229.163 8  21510131.379    21510130.268

  14353440.295 9   9922089.965 9  23000182.923    23000178.710

 -11849341.054 9 -10337351.568 8  20598373.207    20598371.094

 -26067178.448 7   4988517.872 7  20094860.992    20094860.202

 87  6 14  0 43 59.0800000  0  4G 6G 8G11G 9
   3689845.055 9    508569.996 9  21526333.349    21526331.171

  14453514.647 9  10000069.927 8  23019224.754    23019224.042

 -11824898.046 8 -10318305.070 8  20603023.851    20603021.204

 -26078561.448 9   4979647.978 7  20092692.478    20092693.235

 87  6 14  0 44 29.0800000  0  4G 6G 8G11G 9
   3775462.226 9    575284.661 8  21542625.758    21542623.852

  14553703.808 9  10078139.387 7  23038290.734    23038287.927

 -11800034.340 9 -10298930.755 8  20607756.107    20607753.327

 -26089283.605 8   4971293.065 7  20090653.461    20090652.638

 87  6 14  0 44 59.0800000  0  4G 6G 8G11G 9
   3861557.235 8    642371.660 8  21559008.740    21559008.052

  14654005.400 9  10156296.448 9  23057377.451    23057375.140

 -11774751.488 9 -10279229.848 9  20612566.881    20612564.925

 -26099344.224 7   4963453.643 7  20088740.144    20088738.362

 87  6 14  0 45 29.0800000  0  4G 6G 8G11G 9
   3948128.145 9    709829.483 9  21575483.204    21575482.283

  14754417.172 8  10234539.363 8  23076484.270    23076483.286

 -11749051.269 8 -10259203.703 8  20617456.973    20617455.224

 -26108741.577 8   4956131.023 7  20086950.950    20086949.512

 87  6 14  0 45 59.0800000  0  4G 6G 8G11G 9
   4035173.043 9    777656.644 7  21592046.930    21592046.293

  14854936.934 8  10312866.408 9  23095614.097    23095611.495

 -11722935.103 9 -10238853.455 8  20622427.038    20622424.345

 -26117474.354 8   4949326.253 7  20085288.270    20085288.765

 87  6 14  0 46 29.0800000  0  4G 6G 8G11G 9
   4122689.836 9    845851.538 9  21608700.286    21608700.054

  14955562.336 8  10391275.729 9  23114762.311    23114759.882

 -11696405.088 8 -10218180.730 8  20627475.755    20627472.935

 -26125541.875 8   4943039.877 7  20083755.050    20083752.483

 87  6 14  0 46 59.0800000  0  4G 6G 8G11G 9
   4210676.026 9    914412.151 8  21625444.781    21625443.642

  15056290.613 8  10469765.264 8  23133929.871    23133926.164

 -11669462.930 9 -10197186.856 7  20632602.530    20632599.978

 -26132943.103 8   4937272.670 8  20082345.608    20082344.187

 87  6 14  0 47 29.0800000  0  4G 6G 8G11G 9
   4299129.989 9    983337.301 8  21642276.715    21642275.922

  15157120.049 9  10548333.581 9  23153117.316    23153116.152

 -11642109.905 9 -10175872.809 8  20637806.977    20637806.578

 -26139676.611 9   4932025.806 7  20081064.280    20081062.950

 87  6 14  0 47 59.0800000  0  4G 6G 8G11G 9
   4388049.683 9   1052625.340 9  21659196.759    21659196.286

  15258048.653 9  10626979.178 9  23172324.222    23172321.927

 -11614347.292 8 -10154239.612 8  20643091.460    20643089.726

 -26145741.311 9   4927300.044 6  20079910.308    20079908.962

 87  6 14  0 48 29.0800000  0  4G 6G 8G11G 9
   4477432.364 8   1122274.136 8  21676207.507    21676204.658

  15359073.469 9  10705699.805 9  23191547.971    23191545.300

 -11586177.894 9 -10132289.428 8  20648451.439    20648450.275

 -26151137.478 8   4923095.246 7  20078883.749    20078882.455

 87  6 14  0 48 59.0800000  0  4G 6G 8G11G 9
   4567276.810 9   1192282.758 7  21693302.319    21693300.451

  15460192.967 8  10784494.184 8  23210790.604    23210788.515

 -11557602.528 9 -10110022.915 8  20653888.783    20653888.249

 -26155861.990 8   4919413.797 8  20077984.346    20077983.571

 87  6 14  0 49 29.0800000  0  4G 6G 8G11G 9
   4657580.626 9   1262649.311 8  21710487.100    21710485.193

  15561404.884 8  10863360.547 8  23230050.871    23230047.667

 -11528622.621 8 -10087441.174 9  20659404.680    20659402.231

 -26159914.891 8   4916255.716 7  20077212.558    20077211.730

 87  6 14  0 49 59.0800000  0  4G 6G 8G11G 9
   4748341.756 9   1333372.274 8  21727758.946    21727756.651

  15662706.894 9  10942297.132 8  23249328.661    23249324.283

 -11499240.104 9 -10064545.718 8  20664994.796    20664993.110

 -26163295.417 8   4913621.549 7  20076569.140    20076569.275

 87  6 14  0 50 29.0800000  0  4G 6G 8G11G 9
   4839557.743 9   1404449.628 8  21745116.286    21745115.563

  15764096.623 9  11021302.066 8  23268621.630    23268619.462

 -11469456.830 9 -10041337.963 8  20670662.128    20670660.739

 -26166001.784 7   4911512.684 7  20076054.386    20076054.437

 87  6 14  0 50 59.0800000  0  4G 6G 8G11G 9
   4931226.376 9   1475879.722 8  21762559.713    21762559.305

  15865572.032 9  11100373.790 9  23287931.873    23287928.109

 -11439274.759 9 -10017819.474 9  20676407.064    20676403.694

 -26168034.118 8   4909929.051 7  20075667.538    20075666.535

 87  6 14  0 51 29.0800000  0  4G 6G 8G11G 9
   5023345.561 9   1547660.894 7  21780090.093    21780088.926

  15967131.232 9  11179510.796 8  23307257.724    23307255.910

 -11408695.233 9  -9993991.268 8  20682224.278    20682224.059

 -26169390.880 9   4908871.845 6  20075408.668    20075408.268

 87  6 14  0 51 59.0800000  0  4G 6G 8G11G 9
   5115912.814 9   1619791.207 8  21797705.399    21797704.717

  16068771.516 9  11258710.970 9  23326600.518    23326596.885

 -11377720.347 9  -9969854.995 8  20688119.736    20688117.919

 -26170072.254 7   4908340.873 7  20075280.531    20075278.913

 87  6 14  0 52 29.0800000  0  4G 6G 8G11G 9
   5208926.512 9   1692269.375 8  21815405.887    21815403.303

  16170491.067 8  11337972.914 9  23345955.806    23345952.713

 -11346351.430 9  -9945411.685 8  20694088.796    20694086.176

 -26170076.420 8   4908337.631 8  20075280.250    20075277.918

 87  6 14  0 52 59.0800000  0  4G 6G 8G11G 9
   5302384.378 8   1765093.626 8  21833190.194    21833187.486

  16272287.803 9  11417295.006 8  23365326.081    23365325.264

 -11314590.192 9  -9920662.675 8  20700131.176    20700130.533

 -26169402.907 9   4908862.469 7  20075409.194    20075405.880

 87  6 14  0 53 29.0800000  0  4G 6G 8G11G 9
   5396283.761 9   1838261.940 8  21851059.681    21851056.893

  16374159.323 9  11496675.375 8  23384711.652    23384709.545

 -11282438.283 8  -9895609.229 8  20706251.114    20706250.186

 -26168050.962 8   4909915.927 7  20075664.882    20075662.908

 87  6 14  0 53 59.0800000  0  4G 6G 8G11G 9
   5490623.013 9   1911773.012 8  21869011.475    21869009.299

  16476104.033 8  11576112.733 9  23404111.985    23404109.617

 -11249897.479 9  -9870252.771 9  20712443.086    20712440.832

 -26166019.375 8   4911498.985 7  20076051.834    20076050.554

 87  6 14  0 54 29.0800000  0  4G 6G 8G11G 9
   5585399.235 9   1985624.582 9  21887046.569    21887044.723

  16578119.390 8  11655605.164 7  23423523.479    23423521.270

 -11216969.647 9  -9844594.722 8  20718708.956    20718707.149

 -26163308.172 8   4913611.607 7  20076567.883    20076567.141

 87  6 14  0 54 59.0800000  0  4G 6G 8G11G 9
   5680610.389 9   2059815.061 7  21905164.133    21905162.023

  16680203.635 9  11735151.342 6  23442949.467    23442948.288

 -11183656.525 9  -9818636.456 8  20725047.540    20725046.207

 -26159916.476 7   4916254.506 8  20077212.559    20077211.511

 87  6 14  0 55 29.0800000  0  4G 6G 8G11G 9
   5776253.892 9   2134342.439 8  21923364.210    21923362.772

  16782353.534 9  11814748.686 8  23462389.805    23462386.756

 -11149960.051 8  -9792379.457 8  20731459.930    20731459.771

 -26155843.671 8   4919428.117 7  20077987.294    20077987.430

 87  6 14  0 55 59.0800000  0  4G 6G 8G11G 9
   5872327.857 8   2209205.234 8  21941646.124    21941645.379

  16884568.153 7  11894396.377 9  23481840.090    23481838.484

 -11115881.278 9  -9765824.560 8  20737945.635    20737944.262

 -26151088.902 8   4923133.124 7  20078891.563    20078892.122

 87  6 14  0 56 29.0800000  0  4G 6G 8G11G 9
   5968830.116 9   2284401.773 7  21960011.521    21960009.711

  16986845.772 8  11974093.154 9  23501304.160    23501300.516

 -11081422.154 9  -9738973.319 7  20744502.090    20744501.496

 -26145651.488 8   4927370.068 8  20079927.540    20079926.484

 87  6 14  0 56 59.0800000  0  4G 6G 8G11G 9
   6065758.170 9   2359930.110 8  21978454.725    21978453.575

  17089183.909 9  12053837.130 8  23520778.598    23520775.625

 -11046584.667 9  -9711827.221 8  20751132.049    20751131.005

 -26139530.993 8   4932139.258 7  20081092.756    20081090.611

 87  6 14  0 57 29.0800000  0  4G 6G 8G11G 9
   6163109.680 9   2435788.393 8  21996980.168    21996979.234

  17191580.406 9  12133626.533 9  23540263.933    23540260.309

 -11011370.519 9  -9684387.625 9  20757833.246    20757831.042

 -26132727.125 8   4937440.981 7  20082387.796    20082385.420

 87  6 14  0 57 59.0800000  0  4G 6G 8G11G 9
   6260881.833 9   2511974.449 9  22015586.037    22015583.764

  17294032.886 8  12213459.574 9  23559759.867    23559755.690

 -10975781.931 9  -9656656.275 8  20764605.890    20764602.929

 -26125239.594 7   4943275.404 7  20083811.257    20083809.232

 87  6 14  0 58 29.0800000  0  4G 6G 8G11G 9
   6359072.616 9   2588486.706 8  22034271.085    22034269.513

  17396539.711 8  12293334.979 9  23579266.223    23579263.718

 -10939820.354 9  -9628634.272 7  20771449.736    20771447.791

 -26117067.554 9   4949643.225 7  20085367.107    20085365.679

 87  6 14  0 58 59.0800000  0  4G 6G 8G11G 9
   6457679.099 8   2665322.885 8  22053034.965    22053034.613

  17499098.399 9  12373250.763 8  23598782.003    23598777.840

 -10903487.907 9  -9600323.269 8  20778363.171    20778360.806

 -26108211.083 8   4956544.376 7  20087051.550    20087050.747

 87  6 14  0 59 29.0800000  0  4G 6G 8G11G 9
   6556699.904 9   2742481.908 8  22071878.944    22071877.191

  17601707.590 9  12453205.945 9  23618308.821    23618305.035

 -10866785.388 9  -9571723.925 8  20785347.065    20785346.712

 -26098669.017 8   4963979.748 7  20088868.028    20088866.904

 87  6 14  0 59 59.0800000  0  4G 6G 8G11G 9
   6656131.982 9   2819961.411 9  22090799.390    22090798.843

  17704365.128 9  12533198.813 9  23637843.628    23637841.604

 -10829715.077 9  -9542837.965 8  20792400.855    20792400.002

 -26088441.592 9   4971949.161 8  20090814.563    20090813.077

 87  6 14  1  0 29.0800000  0  4G 6G13G11G 9
   6755972.964 8   2897759.528 8  22109799.798    22109797.469

 -56422538.951 9                  21693326.588

 -10792279.091 9  -9513667.079 8  20799525.664    20799522.766

 -26077527.901 9   4980453.331 7  20092891.573    20092889.066

 87  6 14  1  0 59.0800000  0  4G 6G13G11G 9
   6856220.438 9   2975874.409 7  22128874.854    22128873.387

 -56493123.805 9  71683619.035 8  21679921.916    21679919.778

 -10754479.002 8  -9484212.471 8  20806718.381    20806716.902

 -26065928.305 9   4989491.985 6  20095097.802    20095097.955

 87  6 14  1  1 29.0800000  0  4G 6G13G11G 9
   6956872.438 9   3054304.495 8  22148029.212    22148027.831

 -56563325.079 9  71628916.788 8  21666563.025    21666560.061

 -10716316.090 9  -9454475.160 7  20813981.618    20813978.783

 -26053641.577 9   4999066.063 7  20097437.360    20097436.373

 87  6 14  1  1 59.0800000  0  4G 6G13G11G 9
   7057925.889 9   3133047.408 9  22167258.328    22167257.043

 -56633143.178 9  71574513.107 8  21653275.996    21653273.578

 -10677792.387 9  -9424456.690 8  20821311.851    20821310.173

 -26040668.107 8   5009175.254 8  20099904.757    20099903.675

 87  6 14  1  2 29.0800000  0  4G 6G13G11G 9
   7159378.375 9   3212101.261 8  22186564.412    22186564.162

 -56702577.184 9  71520408.702 7  21640062.781    21640061.120

 -10638910.126 8  -9394158.837 8  20828709.648    20828709.451

 -26027007.815 8   5019819.639 7  20102504.201    20102504.828

 87  6 14  1  2 59.0800000  0  4G 6G13G11G 9
   7261227.728 9   3291464.357 9  22205946.010    22205944.494

 -56771626.095 9  71466604.391 8  21626923.599    21626922.134

 -10599670.566 9  -9363582.551 8  20836177.261    20836176.492

 -26012659.763 8   5030999.936 6  20105234.314    20105232.665

 87  6 14  1  3 29.0800000  0  4G 6G13G11G 9
   7363471.327 9   3371134.658 9  22225402.101    22225400.037

 -56840289.863 9  71413100.215 8  21613856.926    21613856.385

 -10560075.711 9  -9332729.415 8  20843711.320    20843711.281

 -25997624.772 8   5042715.503 7  20108096.536    20108093.984

 87  6 14  1  3 59.0800000  0  4G 6G13G11G 9
   7466106.239 9   3451109.891 8  22244933.109    22244932.275

 -56908567.801 9  71359896.663 8  21600864.044    21600863.588

 -10520127.713 9  -9301601.107 9  20851314.550    20851312.688

                   5054966.662 7  20111087.496

 87  6 14  1  4 29.0800000  0  4G 6G13G11G 9
   7569130.574 9   3531388.564 8  22264538.455    22264537.429

 -56976458.385 9  71306994.928 8  21587945.275    21587943.489

 -10479827.834 9  -9270198.635 8  20858981.869    20858980.492

 -26005238.314 8   5067753.781 7  20114209.975    20114208.306

 87  6 14  1  4 59.0800000  0  4G 6G13G11G 9
   7672541.500 9   3611968.461 8  22284218.625    22284214.928

 -57043962.071 9  71254394.683 8  21575100.092    21575097.989

 -10439178.488 9  -9238523.824 8  20866718.935    20866715.593

 -25988140.610 8   5081076.661 7  20117465.455    20117463.350

 87  6 14  1  5 29.0800000  0  4G 6G13G11G 9
   7776336.821 9   3692847.880 9  22303969.326    22303966.944

 -57111077.856 8  71202096.723 7  21562327.363    21562326.766

 -10398180.377 9  -9206577.260 7  20874520.119    20874518.419

 -25970354.891 8   5094935.672 7  20120849.703    20120846.251

 87  6 14  1  5 59.0800000  0  4G 6G13G11G 9
   7880513.872 9   3774024.773 8  22323792.203    22323789.635

 -57177805.597 8  71150101.126 8  21549630.135    21549628.822

 -10356836.126 9  -9174360.955 8  20882386.144    20882385.636

 -25951881.390 9   5109330.625 7  20124364.169    20124363.143

 87  6 14  1  6 29.0800000  0  4G 6G13G11G 9
   7985070.098 9   3855497.122 9  22343690.048    22343687.212

 -57244144.323 9  71098408.636 8  21537006.713    21537004.468

 -10315147.333 9  -9141876.191 8  20890319.299    20890318.730

 -25932720.000 8   5124261.569 8  20128011.232    20128009.146

 87  6 14  1  6 59.0800000  0  4G 6G13G11G 9
   8090002.496 9   3937262.605 7  22363657.798    22363656.279

 -57310093.660 9  71047019.571 8  21524456.611    21524455.135

 -10273116.201 9  -9109124.665 8  20898319.145    20898317.475

 -25912871.038 9   5139728.301 7  20131787.669    20131787.026

 87  6 14  1  7 29.0800000  0  4G 6G13G11G 9
   8195308.800 9   4019319.431 8  22383695.855    22383693.862

 -57375652.988 9  70995934.410 8  21511981.033    21511979.125

 -10230744.139 9  -9076107.485 8  20906382.096    20906380.104

 -25892334.401 8   5155730.887 7  20135695.886    20135695.580

 87  6 14  1  7 59.0800000  0  4G 6G13G11G 9
   8300986.459 9   4101665.629 8  22403805.881    22403803.820

 -57440821.600 9  70945153.716 7  21499579.397    21499578.424

 -10188032.814 9  -9042825.936 8  20914509.270    20914508.073

 -25871110.466 8   5172269.027 6  20139733.758    20139733.204

 87  6 14  1  8 29.0800000  0  4G 6G13G11G 9
   8407032.692 8   4184298.998 9  22423985.504    22423983.979

 -57505599.710 9  70894677.302 8  21487252.832    21487251.129

 -10144984.338 9  -9009281.673 8  20922700.638    20922700.088

 -25849199.238 9   5189342.704 7  20143904.232    20143902.996

 87  6 14  1  8 59.0800000  0  4G 6G13G11G 9
   8513445.447 9   4267217.988 8  22444235.383    22444233.975

 -57569985.710 9  70844506.424 8  21475000.876    21474999.246

 -10101600.387 9  -8975476.010 8  20930957.053    20930955.911

 -25826600.544 9   5206952.056 7  20148202.830    20148202.926

 87  6 14  1  9 29.0800000  0  4G 6G13G11G 9
   8620221.844 9   4350420.321 9  22464554.760    22464552.811

 -57633979.513 9  70794641.176 9  21462823.850    21462821.694

 -10057882.498 8  -8941410.133 8  20939275.891    20939274.927

 -25803314.826 8   5225096.763 7  20152634.748    20152633.499

 87  6 14  1  9 59.0800000  0  4G 6G13G11G 9
   8727358.551 9   4433903.439 8  22484942.018    22484940.789

 -57697581.498 9  70745081.239 8  21450719.757    21450718.384

 -10013832.991 9  -8907085.845 8  20947658.606    20947657.304

 -25779342.598 8   5243776.399 7  20157196.125    20157196.421

 87  6 14  1 10 29.0800000  0  4G 6G13G11G 9
   8834853.642 9   4517665.796 8  22505397.516    22505397.075

 -57760790.548 9  70695827.468 8  21438692.029    21438689.955

  -9969453.633 9  -8872504.533 8  20956104.236    20956101.431

 -25754683.861 8   5262991.007 7  20161889.415    20161888.994

 87  6 14  1 10 59.0800000  0  4G 6G13G11G 9
   8942704.332 9   4601705.248 9  22525920.120    22525919.371

 -57823606.501 9  70646879.999 9  21426738.414    21426736.931

  -9924746.159 9  -8837667.548 8  20964611.594    20964609.603

 -25729339.418 9   5282739.916 7  20166712.485    20166711.611

 87  6 14  1 11 29.0800000  0  4G 6G13G11G 9
   9050908.105 9   4686019.819 8  22546510.761    22546510.139

 -57886028.701 9  70598239.341 8  21414858.012    21414858.300

  -9879712.129 9  -8802576.100 8  20973180.580    20973179.350

 -25703308.477 8   5303023.746 7  20171665.518    20171665.270

 87  6 14  1 11 59.0800000  0  4G 6G13G11G 9
   9159462.093 9   4770607.323 8  22567169.044    22567167.269

 -57948056.770 9  70549905.812 8  21403056.195    21403054.038

  -9834353.522 9  -8767231.746 7  20981811.067    20981810.784

 -25676591.977 8   5323841.804 7  20176749.610    20176748.333

 87  6 14  1 12 29.0800000  0  4G 6G13G11G 9
   9268364.132 9   4855466.020 8  22587892.129    22587889.632

 -58009690.099 9  70501879.874 8  21391327.697    21391325.805

  -9788671.649 9  -8731635.474 8  20990506.362    20990502.674

 -25649190.130 8   5345193.891 6  20181964.035    20181963.573

 87  6 14  1 12 59.0800000  0  4G 6G13G11G 9
   9377610.966 9   4940593.372 8  22608681.224    22608679.772

 -58070928.670 9  70454161.541 9  21379674.379    21379671.862

  -9742668.924 9  -8695789.210 8  20999258.735    20999257.571

 -25621103.815 7   5367079.340 7  20187308.866    20187308.359

 87  6 14  1 13 29.0800000  0  4G 6G13G11G 9
   9487200.080 9   5025987.461 9  22629534.690    22629533.677

 -58131772.006 8  70406751.184 8  21368095.871    21368093.926

  -9696347.212 9  -8659694.373 8  21008075.081    21008073.311

 -25592333.467 9   5389497.792 7  20192783.374    20192782.970

 87  6 14  1 13 59.0800000  0  4G 6G13G11G 9
   9597128.990 9   5111646.305 8  22650453.959    22650452.681

 -58192219.936 9  70359648.927 8  21356593.031    21356590.555

  -9649708.233 9  -8623352.313 8  21016949.209    21016947.663

 -25562878.864 9   5412449.437 7  20198389.410    20198388.232

 87  6 14  1 14 29.0800000  0  4G 6G13G11G 9
   9707394.713 9   5197567.617 8  22671436.139    22671435.815

 -58252271.776 9  70312855.313 8  21345165.658    21345163.852

  -9602753.937 9  -8586764.548 8  21025884.572    21025883.202

 -25532741.057 9   5435933.457 7  20204124.106    20204122.601

 87  6 14  1 14 59.0800000  0  4G 6G13G11G 9
   9817994.810 8   5283749.488 8  22692483.922    22692481.861

 -58311926.633 9  70266371.042 9  21333814.031    21333812.490

  -9555485.484 9  -8549932.000 8  21034879.852    21034878.873

 -25501920.306 9   5459949.618 7  20209987.764    20209988.373

 87  6 14  1 15 29.0800000  0  4G 6G13G11G 9
   9928926.161 9   5370189.438 9  22713592.123    22713591.905

 -58371185.642 9  70220195.237 8  21322537.388    21322535.963

  -9507905.419 9  -8512856.623 8  21043932.791    21043932.179

 -25470417.602 8   5484497.161 7  20215984.362    20215982.608

 87  6 14  1 15 59.0800000  0  4G 6G13G11G 9
  10040186.278 9   5456885.564 7  22734765.369    22734764.399

 -58430048.248 9  70174328.303 9  21311335.814    21311334.514

  -9460015.057 9  -8475539.464 8  21053047.811    21053046.005

 -25438233.197 9   5509575.911 8  20222107.776    20222107.331

 87  6 14  1 16 29.0800000  0  4G 6G13G11G 9
  10151772.429 8   5543835.745 8  22755999.928    22755997.208

 -58488513.357 8  70128771.083 9  21300210.306    21300208.618

  -9411816.618 9  -8437982.233 8  21062219.064    21062218.023

 -25405368.175 9   5535185.004 8  20228363.285    20228361.124

 87  6 14  1 16 59.0800000  0  4G 6G13G11G 9
  10263682.050 9   5631038.014 8  22777294.107    22777293.619

 -58546580.465 9  70083524.010 8  21289160.517    21289158.365

  -9363311.492 9  -8400186.042 8  21071449.427    21071446.385

 -25371822.500 8   5561324.470 7  20234745.832    20234745.100

 87  6 14  1 17 29.0800000  0  4G 6G13G11G 9
  10375911.992 9   5718489.878 8  22798652.358    22798651.106

 -58604250.294 9  70038586.515 8  21278185.975    21278184.848

  -9314501.867 9  -8362152.580 9  21080737.844    21080735.439

 -25337597.220 8   5587993.514 7  20241256.867    20241257.643

 87  6 14  1 17 59.0800000  0  4G 6G13G11G 9
  10488460.195 9   5806189.706 8  22820068.287    22820068.079

 -58661521.767 9  69993959.434 8  21267287.668    21267285.382

  -9265389.129 9  -8323882.928 8  21090083.471    21090081.397

 -25302692.848 8   5615191.719 7  20247898.971    20247899.501

 87  6 14  1 18 29.0800000  0  4G 6G13G11G 9
  10601323.411 9   5894135.032 7  22841543.567    22841544.103

 -58718395.234 9  69949642.469 9  21256464.541    21256462.857

  -9215975.516 9  -8285378.817 7  21099486.706    21099483.824

 -25267110.098 8   5642918.517 7  20254672.617    20254670.380

 87  6 14  1 18 59.0800000  0  4G 6G13G11G 9
  10714498.843 9   5982323.642 9  22863083.033    22863081.804

 -58774870.007 9  69905636.185 9  21245718.232    21245716.924

  -9166262.573 9  -8246641.480 8  21108946.278    21108944.055

 -25230849.895 8   5671173.226 7  20261571.673    20261570.557

 87  6 14  1 19 29.0800000  0  4G 6G13G11G 9
  10827984.078 9   6070753.636 8  22884677.953    22884676.402

 -58830945.455 9  69861941.058 7  21235047.956    21235046.683

  -9116251.732 9  -8207671.996 9  21118462.350    21118461.514

 -25193912.968 8   5699955.246 7  20268599.661    20268598.954

 87  6 14  1 19 59.0800000  0  4G 6G13G11G 9
  10941775.913 9   6159422.547 8  22906331.476    22906331.410

 -58886622.001 9  69818556.768 8  21224452.228    21224450.929

  -9065945.596 9  -8168472.432 8  21128035.972    21128034.655

 -25156300.395 8   5729263.741 8  20275758.479    20275756.811

 87  6 14  1 20 29.0800000  0  4G 6G13G11G 9
  11055871.544 9   6248328.169 9  22928044.251    22928044.747

 -58941899.775 9  69775483.196 8  21213933.602    21213932.045

  -9015345.643 9  -8129043.901 8  21137665.098    21137663.836

 -25118012.941 8   5759098.107 7  20283043.655    20283042.143

 87  6 14  1 20 59.0800000  0  4G 6G13G11G 9
  11170268.528 9   6337468.638 8  22949813.709    22949810.070

 -58996778.606 9  69732720.512 9  21203489.983    21203489.627

  -8964453.271 9  -8089387.527 8  21147349.736    21147347.670

 -25079051.186 9   5789457.902 7  20290458.691    20290457.651

 87  6 14  1 21 29.0800000  0  4G 6G13G11G 9
  11284963.772 9   6426841.487 9  22971639.949    22971638.113

 -59051257.772 9  69690269.232 8  21193122.518    21193122.564

  -8913270.630 9  -8049504.973 8  21157088.945    21157088.093

 -25039416.704 8   5820341.922 7  20297999.878    20298000.026

 87  6 14  1 21 59.0800000  0  4G 6G13G11G 9
  11399954.616 9   6516444.668 8  22993520.914    22993520.113

 -59105337.513 9  69648129.210 8  21182831.955    21182831.265

  -8861799.620 9  -8009397.707 8  21166884.223    21166882.730

 -24999109.914 9   5851749.804 8  20305670.709    20305669.885

